GFSWCAN_prec_precacc_030.txt.gz
Total_Precipitation_Accumulation
0.24 0.27 0.21 0.24 0.13 0.11 0.23 0.27 0.18 0.20 0.20 0.10 0.10 0.10 0.07 0.04 0.04 0.23 0.44 0.29 0.58 0.32 0.10 0.03 0.00 0.01 0.00 0.00 0.01 0.01 0.05 0.06 0.05 0.04 0.02 0.00 0.00 0.00 0.00 0.00 0.00 0.00 0.00 0.00 0.00 0.00 0.00 0.00 0.00 0.00 0.00 0.00 0.00 0.00
0.44 0.25 0.20 0.21 0.11 0.15 0.23 0.25 0.19 0.17 0.15 0.10 0.08 0.06 0.04 0.04 0.04 0.24 0.50 0.23 0.38 0.54 0.21 0.07 0.02 0.01 0.00 0.00 0.00 0.00 0.01 0.01 0.01 0.02 0.01 0.02 0.00 0.00 0.00 0.00 0.00 0.00 0.00 0.00 0.00 0.00 0.00 0.00 0.00 0.00 0.00 0.00 0.00 0.00
0.57 0.26 0.17 0.16 0.15 0.19 0.23 0.18 0.14 0.12 0.12 0.10 0.06 0.05 0.03 0.03 0.04 0.23 0.45 0.44 0.58 0.92 0.26 0.10 0.04 0.00 0.00 0.00 0.02 0.01 0.00 0.00 0.00 0.01 0.00 0.00 0.01 0.00 0.00 0.00 0.00 0.00 0.00 0.00 0.00 0.00 0.00 0.00 0.00 0.00 0.00 0.00 0.00 0.00
0.50 0.36 0.22 0.22 0.21 0.17 0.16 0.13 0.10 0.12 0.09 0.10 0.05 0.05 0.03 0.02 0.04 0.27 0.40 0.79 1.08 0.92 0.58 0.16 0.04 0.03 0.01 0.00 0.01 0.01 0.01 0.00 0.00 0.00 0.00 0.01 0.01 0.00 0.00 0.00 0.00 0.00 0.00 0.00 0.00 0.00 0.00 0.00 0.00 0.00 0.00 0.00 0.00 0.00
0.48 0.38 0.31 0.19 0.15 0.15 0.13 0.12 0.10 0.08 0.10 0.09 0.05 0.04 0.03 0.03 0.08 0.35 0.42 0.88 1.21 1.16 0.80 0.40 0.06 0.03 0.06 0.02 0.00 0.00 0.00 0.00 0.00 0.00 0.01 0.01 0.00 0.00 0.00 0.00 0.00 0.00 0.00 0.00 0.00 0.00 0.00 0.00 0.00 0.00 0.00 0.00 0.00 0.00
0.46 0.40 0.30 0.20 0.16 0.12 0.09 0.12 0.10 0.13 0.14 0.11 0.06 0.08 0.05 0.08 0.17 0.62 0.72 0.60 0.67 0.87 0.91 0.75 0.11 0.04 0.06 0.06 0.10 0.02 0.03 0.02 0.01 0.01 0.00 0.00 0.00 0.00 0.00 0.00 0.00 0.00 0.00 0.00 0.00 0.00 0.00 0.00 0.00 0.00 0.00 0.00 0.00 0.00
0.51 0.43 0.31 0.18 0.12 0.08 0.11 0.13 0.14 0.14 0.18 0.10 0.09 0.13 0.18 0.21 0.34 0.83 0.78 0.71 0.40 0.63 0.76 0.63 0.39 0.10 0.07 0.04 0.22 0.16 0.14 0.07 0.12 0.04 0.00 0.00 0.00 0.01 0.00 0.00 0.00 0.00 0.00 0.00 0.00 0.00 0.00 0.00 0.00 0.00 0.00 0.00 0.00 0.00
0.42 0.32 0.25 0.18 0.14 0.13 0.13 0.12 0.12 0.14 0.13 0.09 0.08 0.15 0.25 0.35 0.53 0.88 0.47 0.44 0.40 0.33 0.37 0.39 0.30 0.08 0.06 0.08 0.12 0.10 0.11 0.21 0.16 0.07 0.02 0.01 0.00 0.00 0.00 0.00 0.00 0.00 0.00 0.00 0.00 0.00 0.00 0.00 0.00 0.00 0.00 0.00 0.00 0.00
0.28 0.22 0.18 0.18 0.19 0.13 0.12 0.10 0.12 0.11 0.08 0.09 0.10 0.22 0.43 0.68 0.94 0.84 0.32 0.33 0.39 0.33 0.29 0.12 0.09 0.04 0.02 0.03 0.03 0.05 0.08 0.11 0.03 0.03 0.01 0.00 0.00 0.00 0.00 0.00 0.00 0.00 0.00 0.00 0.00 0.00 0.00 0.00 0.00 0.00 0.00 0.01 0.03 0.10
0.16 0.16 0.18 0.16 0.19 0.16 0.14 0.12 0.11 0.09 0.10 0.17 0.31 0.54 0.72 0.73 0.85 0.57 0.44 0.34 0.20 0.18 0.06 0.03 0.04 0.01 0.02 0.03 0.03 0.04 0.02 0.04 0.00 0.01 0.01 0.01 0.00 0.00 0.00 0.00 0.00 0.00 0.00 0.00 0.00 0.00 0.00 0.01 0.03 0.07 0.10 0.11 0.11 0.11
0.18 0.16 0.16 0.11 0.12 0.16 0.14 0.13 0.13 0.15 0.25 0.40 0.54 0.61 0.55 0.67 0.53 0.40 0.18 0.08 0.04 0.09 0.03 0.00 0.03 0.02 0.01 0.05 0.07 0.06 0.04 0.03 0.01 0.01 0.01 0.00 0.00 0.00 0.00 0.01 0.00 0.00 0.00 0.00 0.00 0.00 0.01 0.04 0.11 0.14 0.12 0.08 0.04 0.01
0.15 0.09 0.06 0.04 0.06 0.12 0.10 0.08 0.08 0.12 0.24 0.32 0.36 0.32 0.51 0.45 0.31 0.23 0.13 0.05 0.01 0.02 0.01 0.01 0.02 0.03 0.00 0.01 0.03 0.04 0.05 0.02 0.01 0.01 0.02 0.02 0.01 0.02 0.02 0.02 0.01 0.00 0.00 0.00 0.02 0.07 0.13 0.14 0.13 0.09 0.03 0.00 0.00 0.00
0.18 0.14 0.11 0.09 0.04 0.06 0.09 0.06 0.12 0.10 0.09 0.19 0.24 0.32 0.37 0.46 0.54 0.41 0.15 0.04 0.01 0.00 0.02 0.03 0.06 0.03 0.01 0.01 0.07 0.16 0.23 0.13 0.05 0.04 0.02 0.03 0.02 0.04 0.05 0.05 0.05 0.06 0.08 0.13 0.16 0.15 0.10 0.05 0.01 0.01 0.01 0.01 0.01 0.01
0.08 0.10 0.13 0.15 0.18 0.23 0.16 0.04 0.01 0.01 0.01 0.03 0.15 0.34 0.39 0.38 0.22 0.20 0.09 0.04 0.04 0.05 0.02 0.01 0.06 0.09 0.06 0.08 0.24 0.41 0.47 0.29 0.27 0.12 0.06 0.10 0.15 0.30 0.22 0.12 0.09 0.05 0.02 0.03 0.02 0.00 0.00 0.00 0.00 0.00 0.00 0.00 0.00 0.00
0.03 0.03 0.05 0.20 0.26 0.18 0.07 0.03 0.00 0.01 0.03 0.07 0.08 0.18 0.19 0.13 0.08 0.08 0.05 0.05 0.08 0.10 0.14 0.18 0.20 0.17 0.16 0.33 0.37 0.33 0.31 0.25 0.19 0.19 0.25 0.32 0.30 0.29 0.11 0.01 0.00 0.00 0.01 0.00 0.00 0.00 0.00 0.00 0.00 0.00 0.00 0.00 0.00 0.00
0.00 0.02 0.06 0.09 0.07 0.04 0.02 0.03 0.04 0.08 0.18 0.19 0.19 0.19 0.15 0.11 0.14 0.13 0.14 0.16 0.17 0.19 0.24 0.31 0.32 0.38 0.41 0.35 0.24 0.19 0.20 0.25 0.33 0.18 0.15 0.15 0.10 0.12 0.09 0.05 0.01 0.02 0.02 0.00 0.00 0.00 0.00 0.00 0.00 0.00 0.00 0.00 0.00 0.00
0.00 0.01 0.00 0.00 0.00 0.00 0.01 0.04 0.14 0.21 0.23 0.18 0.34 0.35 0.28 0.24 0.29 0.28 0.26 0.24 0.21 0.19 0.21 0.23 0.27 0.26 0.25 0.26 0.29 0.27 0.33 0.24 0.14 0.12 0.11 0.09 0.10 0.07 0.06 0.05 0.01 0.02 0.01 0.00 0.00 0.00 0.00 0.00 0.00 0.00 0.00 0.00 0.00 0.00
0.02 0.02 0.00 0.00 0.00 0.00 0.00 0.02 0.07 0.05 0.12 0.22 0.26 0.37 0.26 0.30 0.27 0.23 0.19 0.15 0.14 0.15 0.16 0.21 0.20 0.26 0.32 0.30 0.32 0.29 0.27 0.20 0.15 0.11 0.10 0.11 0.10 0.05 0.04 0.03 0.02 0.01 0.00 0.00 0.00 0.00 0.00 0.00 0.00 0.00 0.00 0.00 0.00 0.00
0.01 0.02 0.00 0.01 0.00 0.00 0.00 0.00 0.00 0.06 0.19 0.20 0.19 0.14 0.10 0.13 0.10 0.08 0.06 0.05 0.04 0.04 0.05 0.08 0.13 0.20 0.26 0.25 0.29 0.26 0.20 0.14 0.08 0.05 0.07 0.08 0.08 0.06 0.04 0.02 0.04 0.05 0.02 0.00 0.00 0.00 0.00 0.00 0.00 0.00 0.00 0.00 0.00 0.01
0.00 0.00 0.00 0.03 0.01 0.00 0.00 0.00 0.00 0.02 0.08 0.10 0.08 0.03 0.03 0.04 0.02 0.02 0.02 0.01 0.00 0.00 0.02 0.07 0.16 0.18 0.16 0.16 0.17 0.16 0.13 0.08 0.03 0.02 0.07 0.11 0.11 0.07 0.07 0.06 0.06 0.03 0.02 0.01 0.00 0.00 0.00 0.01 0.01 0.00 0.01 0.01 0.01 0.01
0.02 0.00 0.00 0.01 0.05 0.01 0.00 0.00 0.00 0.01 0.01 0.00 0.00 0.00 0.00 0.01 0.01 0.01 0.01 0.00 0.01 0.03 0.09 0.15 0.16 0.14 0.10 0.08 0.07 0.07 0.09 0.10 0.11 0.09 0.08 0.12 0.13 0.10 0.11 0.12 0.11 0.09 0.07 0.07 0.07 0.06 0.05 0.06 0.04 0.03 0.03 0.01 0.01 0.01
0.01 0.00 0.00 0.01 0.05 0.06 0.02 0.00 0.00 0.00 0.00 0.01 0.01 0.01 0.02 0.02 0.02 0.02 0.02 0.03 0.07 0.14 0.16 0.11 0.07 0.06 0.05 0.05 0.04 0.05 0.07 0.09 0.15 0.23 0.30 0.24 0.24 0.23 0.24 0.24 0.17 0.16 0.15 0.15 0.13 0.11 0.08 0.05 0.03 0.01 0.01 0.01 0.01 0.02
0.00 0.01 0.02 0.02 0.06 0.05 0.04 0.01 0.03 0.01 0.00 0.01 0.03 0.02 0.02 0.01 0.02 0.02 0.04 0.06 0.11 0.13 0.15 0.08 0.05 0.08 0.12 0.18 0.16 0.14 0.13 0.10 0.11 0.16 0.20 0.22 0.23 0.24 0.23 0.22 0.19 0.17 0.14 0.11 0.07 0.06 0.04 0.02 0.00 0.01 0.01 0.03 0.03 0.02
0.01 0.02 0.10 0.12 0.06 0.07 0.05 0.05 0.04 0.04 0.02 0.01 0.02 0.02 0.02 0.01 0.01 0.03 0.04 0.07 0.11 0.06 0.06 0.12 0.14 0.13 0.13 0.14 0.16 0.19 0.24 0.20 0.21 0.22 0.23 0.18 0.16 0.17 0.12 0.10 0.07 0.06 0.05 0.03 0.01 0.01 0.00 0.01 0.02 0.03 0.02 0.02 0.01 0.02
0.07 0.04 0.12 0.14 0.11 0.08 0.04 0.03 0.05 0.04 0.03 0.02 0.03 0.02 0.01 0.02 0.04 0.04 0.05 0.13 0.10 0.11 0.15 0.20 0.16 0.16 0.16 0.19 0.20 0.19 0.17 0.12 0.10 0.09 0.11 0.07 0.07 0.05 0.01 0.00 0.00 0.01 0.00 0.01 0.01 0.02 0.02 0.02 0.01 0.01 0.01 0.02 0.04 0.05
0.21 0.10 0.07 0.07 0.06 0.07 0.04 0.02 0.02 0.02 0.02 0.06 0.08 0.04 0.04 0.07 0.07 0.09 0.13 0.20 0.17 0.17 0.20 0.22 0.23 0.18 0.16 0.15 0.14 0.11 0.08 0.06 0.03 0.02 0.02 0.00 0.01 0.01 0.01 0.01 0.01 0.01 0.00 0.02 0.04 0.03 0.01 0.01 0.01 0.02 0.03 0.04 0.05 0.07
0.16 0.11 0.05 0.04 0.08 0.13 0.19 0.17 0.16 0.16 0.13 0.13 0.10 0.08 0.15 0.18 0.13 0.17 0.20 0.25 0.26 0.26 0.21 0.17 0.12 0.10 0.11 0.10 0.07 0.06 0.03 0.01 0.01 0.01 0.01 0.02 0.02 0.01 0.01 0.02 0.03 0.02 0.01 0.01 0.02 0.03 0.04 0.04 0.03 0.03 0.04 0.04 0.06 0.08
0.09 0.08 0.09 0.11 0.18 0.22 0.21 0.19 0.22 0.24 0.24 0.18 0.16 0.14 0.16 0.13 0.15 0.19 0.23 0.26 0.19 0.15 0.09 0.07 0.05 0.03 0.03 0.04 0.04 0.03 0.01 0.00 0.01 0.01 0.02 0.04 0.02 0.00 0.00 0.00 0.01 0.00 0.00 0.01 0.01 0.02 0.03 0.06 0.06 0.07 0.06 0.08 0.08 0.10
0.09 0.11 0.11 0.11 0.07 0.07 0.10 0.13 0.15 0.15 0.14 0.11 0.10 0.09 0.09 0.10 0.17 0.18 0.18 0.16 0.14 0.10 0.07 0.06 0.08 0.05 0.03 0.02 0.01 0.00 0.00 0.00 0.00 0.00 0.00 0.01 0.02 0.01 0.00 0.01 0.01 0.00 0.01 0.01 0.00 0.00 0.03 0.08 0.09 0.12 0.10 0.10 0.10 0.10
0.02 0.02 0.02 0.01 0.02 0.05 0.06 0.05 0.09 0.08 0.05 0.05 0.03 0.03 0.04 0.09 0.15 0.14 0.11 0.09 0.08 0.09 0.09 0.08 0.06 0.03 0.02 0.02 0.01 0.02 0.03 0.01 0.00 0.00 0.01 0.01 0.02 0.01 0.01 0.02 0.01 0.01 0.01 0.01 0.01 0.01 0.01 0.01 0.04 0.08 0.05 0.06 0.09 0.09
0.01 0.01 0.01 0.01 0.03 0.04 0.05 0.03 0.06 0.07 0.06 0.04 0.04 0.04 0.06 0.09 0.11 0.08 0.07 0.12 0.07 0.06 0.04 0.02 0.01 0.00 0.00 0.01 0.01 0.01 0.02 0.01 0.01 0.01 0.01 0.01 0.01 0.01 0.01 0.01 0.01 0.02 0.02 0.02 0.02 0.03 0.04 0.02 0.04 0.06 0.04 0.04 0.06 0.06
0.01 0.01 0.01 0.05 0.07 0.02 0.01 0.03 0.07 0.11 0.07 0.06 0.06 0.05 0.07 0.07 0.05 0.06 0.05 0.05 0.03 0.01 0.01 0.01 0.01 0.02 0.01 0.01 0.01 0.01 0.02 0.01 0.01 0.01 0.02 0.02 0.01 0.01 0.01 0.01 0.01 0.02 0.02 0.02 0.03 0.05 0.04 0.04 0.05 0.05 0.06 0.05 0.06 0.05
0.01 0.00 0.01 0.01 0.02 0.03 0.02 0.01 0.01 0.03 0.04 0.04 0.07 0.06 0.07 0.07 0.06 0.08 0.07 0.03 0.02 0.01 0.01 0.01 0.01 0.02 0.03 0.01 0.00 0.00 0.00 0.00 0.00 0.01 0.02 0.02 0.01 0.01 0.01 0.01 0.01 0.02 0.01 0.01 0.03 0.04 0.03 0.04 0.04 0.05 0.04 0.04 0.04 0.03

GFSWCAN_prec_precacc_033.txt.gz
Total_Precipitation_Accumulation
0.39 0.41 0.36 0.37 0.23 0.17 0.27 0.29 0.19 0.20 0.20 0.10 0.10 0.10 0.07 0.04 0.08 0.29 0.53 0.40 0.66 0.38 0.14 0.05 0.03 0.01 0.00 0.00 0.01 0.01 0.06 0.07 0.08 0.07 0.02 0.00 0.00 0.00 0.00 0.00 0.00 0.00 0.00 0.00 0.00 0.00 0.00 0.00 0.00 0.00 0.00 0.00 0.00 0.00
0.49 0.31 0.27 0.27 0.15 0.17 0.25 0.27 0.19 0.18 0.15 0.11 0.09 0.06 0.04 0.04 0.07 0.31 0.56 0.30 0.43 0.60 0.28 0.09 0.03 0.01 0.00 0.00 0.00 0.00 0.01 0.01 0.01 0.04 0.01 0.02 0.00 0.00 0.00 0.00 0.00 0.00 0.00 0.00 0.00 0.00 0.00 0.00 0.00 0.00 0.00 0.00 0.00 0.00
0.59 0.28 0.19 0.17 0.16 0.20 0.25 0.20 0.15 0.14 0.13 0.10 0.07 0.05 0.04 0.05 0.08 0.31 0.47 0.46 0.61 0.99 0.44 0.13 0.04 0.00 0.00 0.00 0.02 0.01 0.00 0.01 0.02 0.05 0.03 0.01 0.01 0.00 0.00 0.00 0.00 0.00 0.00 0.00 0.00 0.00 0.00 0.00 0.00 0.00 0.00 0.00 0.00 0.00
0.52 0.38 0.23 0.23 0.22 0.18 0.17 0.15 0.14 0.13 0.11 0.11 0.05 0.07 0.06 0.05 0.09 0.31 0.41 0.82 1.12 1.03 0.83 0.27 0.12 0.06 0.02 0.00 0.01 0.02 0.01 0.00 0.02 0.03 0.05 0.02 0.01 0.00 0.00 0.00 0.00 0.00 0.00 0.00 0.00 0.00 0.00 0.00 0.00 0.00 0.00 0.00 0.00 0.00
0.48 0.39 0.31 0.19 0.16 0.16 0.14 0.17 0.14 0.10 0.12 0.10 0.08 0.08 0.07 0.08 0.12 0.37 0.46 0.92 1.29 1.33 1.02 0.59 0.14 0.11 0.08 0.02 0.01 0.01 0.01 0.00 0.00 0.04 0.04 0.02 0.00 0.00 0.00 0.00 0.00 0.00 0.00 0.00 0.00 0.00 0.00 0.00 0.00 0.00 0.00 0.00 0.00 0.00
0.46 0.40 0.31 0.20 0.17 0.13 0.12 0.15 0.13 0.17 0.17 0.14 0.13 0.14 0.11 0.11 0.19 0.65 0.82 0.66 0.71 0.98 1.03 0.87 0.17 0.09 0.11 0.10 0.12 0.04 0.03 0.02 0.04 0.03 0.01 0.00 0.00 0.00 0.00 0.00 0.00 0.00 0.00 0.00 0.00 0.00 0.00 0.00 0.00 0.00 0.00 0.00 0.00 0.00
0.51 0.43 0.31 0.19 0.12 0.08 0.11 0.14 0.16 0.18 0.22 0.18 0.18 0.17 0.19 0.22 0.34 0.89 0.84 0.73 0.40 0.68 0.86 0.79 0.59 0.15 0.14 0.15 0.47 0.34 0.20 0.12 0.16 0.06 0.00 0.00 0.00 0.01 0.00 0.00 0.00 0.00 0.00 0.00 0.00 0.00 0.00 0.00 0.00 0.00 0.00 0.00 0.00 0.00
0.43 0.32 0.25 0.18 0.14 0.13 0.13 0.12 0.13 0.15 0.15 0.12 0.11 0.16 0.25 0.38 0.59 0.95 0.59 0.56 0.44 0.38 0.51 0.59 0.71 0.34 0.13 0.15 0.31 0.51 0.27 0.32 0.25 0.11 0.04 0.01 0.01 0.00 0.00 0.00 0.00 0.00 0.00 0.00 0.00 0.00 0.00 0.00 0.00 0.00 0.00 0.00 0.00 0.00
0.28 0.22 0.18 0.18 0.19 0.13 0.12 0.10 0.12 0.11 0.08 0.09 0.11 0.25 0.50 0.82 1.02 0.87 0.47 0.60 0.56 0.43 0.45 0.26 0.46 0.39 0.11 0.09 0.06 0.27 0.34 0.30 0.12 0.09 0.05 0.03 0.01 0.00 0.00 0.00 0.00 0.00 0.00 0.00 0.00 0.00 0.00 0.00 0.00 0.00 0.00 0.01 0.03 0.10
0.18 0.17 0.18 0.16 0.19 0.16 0.14 0.12 0.11 0.09 0.11 0.20 0.37 0.64 0.83 0.86 1.00 0.70 0.68 0.72 0.47 0.34 0.16 0.10 0.21 0.36 0.15 0.11 0.09 0.06 0.26 0.31 0.15 0.04 0.04 0.05 0.02 0.00 0.00 0.00 0.00 0.00 0.00 0.00 0.00 0.00 0.00 0.01 0.03 0.07 0.10 0.11 0.11 0.11
0.22 0.18 0.16 0.11 0.12 0.16 0.14 0.13 0.14 0.20 0.36 0.50 0.68 0.78 0.69 0.84 0.86 0.77 0.62 0.45 0.30 0.20 0.07 0.03 0.11 0.29 0.10 0.07 0.10 0.06 0.06 0.08 0.03 0.01 0.02 0.02 0.01 0.00 0.00 0.01 0.01 0.00 0.00 0.01 0.00 0.00 0.01 0.04 0.11 0.14 0.12 0.08 0.04 0.01
0.19 0.11 0.06 0.04 0.06 0.12 0.10 0.08 0.13 0.26 0.40 0.53 0.55 0.48 0.77 0.88 0.73 0.56 0.34 0.15 0.05 0.03 0.02 0.03 0.04 0.12 0.10 0.03 0.04 0.05 0.05 0.02 0.01 0.01 0.02 0.02 0.01 0.02 0.02 0.02 0.02 0.01 0.01 0.01 0.02 0.07 0.13 0.14 0.13 0.09 0.03 0.00 0.00 0.00
0.21 0.16 0.12 0.09 0.04 0.07 0.10 0.11 0.27 0.38 0.43 0.38 0.47 0.64 0.78 0.76 0.74 0.52 0.19 0.05 0.01 0.00 0.02 0.03 0.06 0.04 0.04 0.03 0.08 0.16 0.23 0.13 0.05 0.04 0.02 0.03 0.02 0.04 0.06 0.06 0.06 0.06 0.09 0.13 0.16 0.15 0.10 0.05 0.01 0.01 0.01 0.01 0.01 0.01
0.13 0.14 0.16 0.18 0.21 0.27 0.27 0.28 0.37 0.43 0.32 0.35 0.38 0.52 0.47 0.42 0.25 0.22 0.09 0.04 0.04 0.05 0.02 0.01 0.07 0.10 0.07 0.09 0.25 0.42 0.47 0.29 0.27 0.12 0.06 0.10 0.15 0.30 0.23 0.12 0.09 0.07 0.05 0.04 0.02 0.00 0.00 0.00 0.00 0.00 0.00 0.00 0.00 0.00
0.11 0.11 0.16 0.34 0.39 0.32 0.26 0.29 0.20 0.15 0.11 0.12 0.10 0.19 0.19 0.14 0.09 0.08 0.06 0.05 0.09 0.10 0.15 0.18 0.21 0.23 0.26 0.41 0.40 0.37 0.33 0.26 0.20 0.19 0.25 0.32 0.30 0.29 0.11 0.02 0.00 0.00 0.01 0.01 0.01 0.00 0.00 0.00 0.00 0.00 0.00 0.00 0.00 0.00
0.05 0.08 0.15 0.21 0.16 0.09 0.07 0.07 0.07 0.09 0.18 0.19 0.21 0.20 0.16 0.12 0.15 0.14 0.15 0.16 0.18 0.20 0.24 0.31 0.32 0.39 0.46 0.40 0.28 0.22 0.21 0.25 0.34 0.19 0.16 0.15 0.10 0.12 0.10 0.06 0.03 0.03 0.03 0.02 0.01 0.01 0.00 0.00 0.00 0.00 0.00 0.00 0.00 0.00
0.07 0.08 0.07 0.04 0.02 0.01 0.01 0.06 0.14 0.21 0.23 0.20 0.39 0.39 0.31 0.27 0.32 0.32 0.30 0.28 0.23 0.20 0.22 0.24 0.30 0.30 0.29 0.28 0.31 0.31 0.37 0.29 0.18 0.16 0.13 0.11 0.12 0.11 0.12 0.12 0.07 0.04 0.02 0.00 0.00 0.00 0.00 0.00 0.00 0.00 0.00 0.00 0.00 0.00
0.04 0.05 0.01 0.00 0.01 0.01 0.01 0.03 0.07 0.05 0.15 0.27 0.31 0.43 0.31 0.36 0.33 0.30 0.31 0.26 0.24 0.23 0.23 0.28 0.26 0.31 0.37 0.34 0.37 0.37 0.38 0.32 0.25 0.20 0.18 0.18 0.17 0.12 0.09 0.07 0.05 0.04 0.02 0.01 0.00 0.00 0.00 0.00 0.00 0.00 0.00 0.00 0.00 0.00
0.01 0.02 0.00 0.01 0.00 0.00 0.01 0.01 0.01 0.08 0.26 0.27 0.26 0.20 0.16 0.20 0.18 0.18 0.14 0.10 0.08 0.07 0.08 0.12 0.17 0.25 0.33 0.34 0.39 0.37 0.32 0.26 0.19 0.14 0.12 0.14 0.15 0.13 0.11 0.09 0.11 0.12 0.06 0.02 0.01 0.00 0.00 0.00 0.00 0.00 0.00 0.00 0.00 0.01
0.00 0.00 0.00 0.03 0.01 0.00 0.00 0.00 0.00 0.04 0.14 0.17 0.14 0.05 0.04 0.05 0.03 0.02 0.02 0.01 0.00 0.00 0.03 0.10 0.22 0.26 0.25 0.26 0.28 0.27 0.25 0.20 0.12 0.06 0.11 0.16 0.18 0.14 0.15 0.13 0.12 0.08 0.05 0.04 0.03 0.02 0.02 0.03 0.03 0.03 0.02 0.02 0.02 0.02
0.02 0.00 0.00 0.01 0.05 0.01 0.00 0.00 0.01 0.02 0.03 0.02 0.01 0.00 0.00 0.01 0.01 0.01 0.01 0.00 0.01 0.03 0.13 0.20 0.22 0.20 0.16 0.13 0.12 0.12 0.14 0.15 0.17 0.13 0.12 0.16 0.18 0.14 0.16 0.18 0.16 0.14 0.12 0.13 0.13 0.13 0.11 0.11 0.09 0.07 0.07 0.04 0.02 0.03
0.01 0.00 0.00 0.01 0.05 0.06 0.02 0.00 0.00 0.00 0.00 0.01 0.01 0.01 0.02 0.02 0.02 0.02 0.02 0.03 0.09 0.18 0.20 0.15 0.10 0.08 0.06 0.06 0.06 0.06 0.09 0.11 0.17 0.27 0.34 0.28 0.29 0.29 0.31 0.32 0.24 0.23 0.21 0.21 0.18 0.15 0.12 0.09 0.06 0.05 0.03 0.02 0.02 0.02
0.00 0.01 0.02 0.02 0.06 0.05 0.04 0.01 0.03 0.01 0.00 0.01 0.03 0.02 0.02 0.02 0.03 0.02 0.04 0.07 0.14 0.18 0.19 0.09 0.05 0.09 0.12 0.19 0.16 0.15 0.13 0.10 0.12 0.17 0.22 0.25 0.27 0.28 0.27 0.26 0.24 0.21 0.17 0.15 0.11 0.09 0.06 0.03 0.01 0.01 0.01 0.03 0.03 0.02
0.01 0.02 0.10 0.12 0.06 0.07 0.05 0.05 0.04 0.04 0.02 0.01 0.02 0.03 0.03 0.03 0.01 0.03 0.04 0.08 0.15 0.09 0.08 0.13 0.14 0.13 0.13 0.14 0.16 0.19 0.25 0.20 0.21 0.22 0.23 0.18 0.17 0.18 0.14 0.11 0.08 0.07 0.05 0.04 0.01 0.01 0.00 0.01 0.02 0.03 0.02 0.02 0.01 0.02
0.07 0.04 0.12 0.14 0.11 0.08 0.04 0.03 0.05 0.04 0.03 0.02 0.03 0.03 0.02 0.02 0.04 0.04 0.05 0.14 0.12 0.12 0.16 0.20 0.16 0.16 0.17 0.19 0.21 0.20 0.17 0.12 0.10 0.09 0.11 0.08 0.07 0.05 0.01 0.00 0.00 0.01 0.00 0.01 0.01 0.02 0.02 0.02 0.01 0.01 0.01 0.02 0.04 0.06
0.21 0.11 0.07 0.07 0.06 0.07 0.04 0.02 0.02 0.03 0.03 0.07 0.08 0.05 0.04 0.07 0.07 0.10 0.14 0.21 0.18 0.18 0.21 0.23 0.23 0.18 0.17 0.15 0.14 0.12 0.08 0.06 0.03 0.02 0.02 0.00 0.01 0.01 0.01 0.01 0.01 0.01 0.00 0.02 0.04 0.03 0.01 0.01 0.01 0.02 0.03 0.04 0.05 0.07
0.16 0.11 0.05 0.05 0.08 0.13 0.19 0.17 0.16 0.16 0.13 0.14 0.11 0.08 0.15 0.18 0.14 0.19 0.21 0.26 0.27 0.28 0.23 0.18 0.12 0.10 0.11 0.10 0.08 0.06 0.03 0.01 0.01 0.01 0.01 0.02 0.02 0.01 0.01 0.02 0.03 0.02 0.01 0.01 0.02 0.03 0.05 0.04 0.03 0.03 0.04 0.04 0.06 0.08
0.09 0.08 0.09 0.11 0.18 0.22 0.21 0.19 0.22 0.25 0.25 0.19 0.17 0.15 0.16 0.13 0.16 0.21 0.26 0.29 0.21 0.15 0.10 0.07 0.05 0.03 0.03 0.04 0.04 0.03 0.02 0.01 0.01 0.01 0.02 0.04 0.02 0.00 0.00 0.01 0.01 0.00 0.01 0.01 0.01 0.02 0.03 0.06 0.07 0.07 0.06 0.08 0.08 0.10
0.09 0.11 0.11 0.11 0.07 0.07 0.10 0.14 0.15 0.16 0.15 0.12 0.10 0.09 0.10 0.11 0.19 0.20 0.21 0.20 0.15 0.10 0.07 0.07 0.09 0.06 0.03 0.02 0.01 0.00 0.00 0.00 0.00 0.00 0.00 0.01 0.02 0.01 0.00 0.01 0.01 0.00 0.01 0.01 0.00 0.00 0.03 0.08 0.09 0.12 0.10 0.10 0.10 0.10
0.02 0.02 0.02 0.01 0.02 0.06 0.07 0.06 0.09 0.08 0.05 0.05 0.03 0.04 0.05 0.11 0.18 0.16 0.12 0.10 0.09 0.10 0.10 0.08 0.06 0.03 0.02 0.02 0.01 0.02 0.03 0.01 0.00 0.00 0.01 0.01 0.02 0.01 0.01 0.02 0.01 0.01 0.01 0.01 0.01 0.01 0.01 0.01 0.04 0.08 0.05 0.06 0.09 0.09
0.01 0.01 0.01 0.01 0.04 0.06 0.06 0.03 0.06 0.07 0.06 0.04 0.04 0.04 0.06 0.10 0.12 0.09 0.08 0.13 0.07 0.06 0.04 0.02 0.01 0.00 0.00 0.01 0.01 0.01 0.02 0.02 0.02 0.01 0.01 0.02 0.01 0.01 0.02 0.02 0.02 0.02 0.02 0.02 0.02 0.03 0.04 0.02 0.04 0.06 0.04 0.04 0.06 0.06
0.01 0.01 0.01 0.05 0.08 0.04 0.03 0.05 0.08 0.11 0.07 0.06 0.07 0.05 0.07 0.07 0.05 0.06 0.05 0.05 0.03 0.01 0.01 0.01 0.01 0.02 0.01 0.01 0.01 0.01 0.02 0.01 0.01 0.01 0.02 0.02 0.01 0.01 0.01 0.01 0.01 0.02 0.02 0.02 0.03 0.05 0.04 0.04 0.05 0.05 0.06 0.05 0.06 0.05
0.01 0.00 0.01 0.01 0.03 0.04 0.02 0.02 0.04 0.04 0.04 0.05 0.07 0.07 0.07 0.07 0.06 0.08 0.07 0.03 0.02 0.01 0.01 0.01 0.01 0.02 0.03 0.01 0.00 0.00 0.00 0.00 0.00 0.01 0.02 0.02 0.01 0.01 0.01 0.01 0.01 0.02 0.01 0.01 0.03 0.04 0.04 0.04 0.04 0.05 0.04 0.04 0.04 0.04

GFSWCAN_prec_precacc_036.txt.gz
Total_Precipitation_Accumulation
0.44 0.46 0.40 0.43 0.32 0.35 0.45 0.47 0.35 0.31 0.27 0.13 0.11 0.11 0.08 0.05 0.09 0.30 0.59 0.51 0.80 0.51 0.16 0.07 0.06 0.01 0.00 0.00 0.01 0.01 0.06 0.07 0.08 0.08 0.03 0.00 0.01 0.00 0.00 0.00 0.00 0.00 0.00 0.00 0.00 0.00 0.00 0.00 0.00 0.00 0.00 0.00 0.00 0.00
0.61 0.43 0.41 0.41 0.32 0.37 0.44 0.43 0.31 0.24 0.19 0.12 0.10 0.07 0.06 0.05 0.09 0.32 0.61 0.50 0.57 0.75 0.31 0.11 0.04 0.01 0.00 0.00 0.00 0.00 0.01 0.01 0.01 0.04 0.02 0.04 0.01 0.00 0.00 0.00 0.00 0.00 0.00 0.00 0.00 0.00 0.00 0.00 0.00 0.00 0.00 0.00 0.00 0.00
0.67 0.39 0.32 0.30 0.29 0.34 0.36 0.28 0.20 0.17 0.15 0.12 0.08 0.07 0.06 0.06 0.10 0.32 0.54 0.66 0.77 1.07 0.46 0.15 0.07 0.01 0.00 0.00 0.02 0.01 0.00 0.01 0.02 0.05 0.05 0.04 0.02 0.00 0.00 0.00 0.00 0.00 0.00 0.00 0.00 0.00 0.00 0.00 0.00 0.00 0.00 0.00 0.00 0.00
0.55 0.41 0.27 0.27 0.25 0.22 0.20 0.17 0.16 0.15 0.13 0.13 0.08 0.09 0.08 0.07 0.12 0.35 0.51 1.00 1.25 1.10 0.86 0.29 0.13 0.07 0.03 0.00 0.01 0.02 0.02 0.00 0.03 0.05 0.08 0.06 0.02 0.01 0.00 0.00 0.00 0.00 0.00 0.00 0.00 0.00 0.00 0.00 0.00 0.00 0.00 0.00 0.00 0.00
0.49 0.41 0.33 0.21 0.17 0.16 0.15 0.18 0.15 0.11 0.14 0.13 0.11 0.10 0.09 0.09 0.15 0.44 0.56 1.06 1.38 1.41 1.05 0.61 0.17 0.13 0.10 0.03 0.01 0.01 0.01 0.01 0.03 0.10 0.09 0.04 0.01 0.01 0.01 0.00 0.00 0.00 0.00 0.00 0.00 0.00 0.00 0.00 0.00 0.00 0.00 0.00 0.00 0.00
0.47 0.41 0.31 0.22 0.18 0.14 0.13 0.16 0.14 0.18 0.19 0.16 0.14 0.15 0.12 0.15 0.27 0.77 0.99 0.79 0.76 1.03 1.08 0.94 0.24 0.11 0.15 0.14 0.16 0.05 0.04 0.03 0.07 0.08 0.06 0.02 0.01 0.01 0.00 0.00 0.00 0.00 0.00 0.00 0.00 0.00 0.00 0.00 0.00 0.00 0.00 0.00 0.00 0.00
0.51 0.44 0.31 0.19 0.13 0.09 0.13 0.16 0.19 0.20 0.22 0.19 0.19 0.22 0.25 0.32 0.41 0.96 0.90 0.75 0.41 0.70 0.94 0.86 0.66 0.18 0.18 0.23 0.52 0.36 0.20 0.13 0.19 0.11 0.03 0.01 0.00 0.01 0.00 0.00 0.00 0.00 0.00 0.00 0.00 0.00 0.00 0.00 0.00 0.00 0.00 0.00 0.00 0.00
0.43 0.32 0.26 0.19 0.14 0.14 0.15 0.17 0.16 0.17 0.21 0.20 0.18 0.26 0.30 0.44 0.61 0.96 0.64 0.60 0.44 0.39 0.59 0.70 0.75 0.43 0.18 0.25 0.39 0.55 0.29 0.34 0.29 0.14 0.05 0.02 0.02 0.01 0.00 0.00 0.00 0.00 0.00 0.00 0.00 0.00 0.00 0.00 0.00 0.00 0.00 0.00 0.00 0.00
0.28 0.22 0.19 0.18 0.19 0.15 0.14 0.12 0.14 0.16 0.15 0.19 0.26 0.32 0.52 0.83 1.04 0.91 0.63 0.65 0.57 0.47 0.55 0.31 0.48 0.45 0.29 0.15 0.11 0.31 0.38 0.34 0.19 0.15 0.07 0.04 0.01 0.01 0.00 0.00 0.00 0.00 0.00 0.00 0.00 0.00 0.00 0.00 0.00 0.00 0.00 0.01 0.03 0.10
0.18 0.17 0.18 0.16 0.19 0.17 0.14 0.13 0.14 0.13 0.15 0.25 0.40 0.65 0.87 0.88 1.06 0.84 1.12 0.87 0.53 0.38 0.23 0.18 0.25 0.38 0.40 0.35 0.17 0.10 0.31 0.36 0.31 0.24 0.17 0.11 0.03 0.01 0.00 0.00 0.00 0.00 0.00 0.00 0.00 0.00 0.00 0.01 0.03 0.07 0.10 0.11 0.11 0.11
0.22 0.18 0.16 0.11 0.12 0.16 0.14 0.13 0.14 0.20 0.37 0.51 0.71 0.89 0.78 0.90 0.91 0.93 0.88 0.62 0.45 0.28 0.08 0.03 0.12 0.34 0.35 0.36 0.36 0.14 0.14 0.30 0.27 0.22 0.23 0.19 0.08 0.03 0.02 0.02 0.01 0.00 0.01 0.01 0.00 0.01 0.01 0.04 0.11 0.14 0.12 0.08 0.04 0.01
0.19 0.11 0.06 0.04 0.06 0.12 0.10 0.08 0.14 0.27 0.42 0.61 0.71 0.62 0.84 0.90 0.76 0.62 0.46 0.32 0.18 0.07 0.04 0.04 0.04 0.18 0.42 0.41 0.39 0.22 0.10 0.11 0.15 0.14 0.17 0.13 0.08 0.03 0.02 0.03 0.03 0.02 0.01 0.01 0.02 0.07 0.13 0.14 0.13 0.10 0.04 0.01 0.00 0.00
0.21 0.16 0.12 0.09 0.04 0.07 0.10 0.14 0.34 0.51 0.73 0.61 0.54 0.71 0.83 0.83 0.85 0.67 0.32 0.14 0.06 0.01 0.03 0.06 0.08 0.07 0.26 0.43 0.32 0.28 0.31 0.17 0.08 0.05 0.04 0.07 0.04 0.05 0.07 0.06 0.06 0.06 0.09 0.13 0.16 0.15 0.11 0.06 0.04 0.05 0.06 0.03 0.01 0.01
0.13 0.14 0.16 0.18 0.21 0.27 0.29 0.34 0.64 0.90 0.64 0.41 0.45 0.73 0.62 0.60 0.39 0.30 0.15 0.07 0.06 0.07 0.05 0.02 0.07 0.10 0.10 0.25 0.38 0.46 0.50 0.30 0.28 0.13 0.06 0.10 0.15 0.30 0.23 0.12 0.09 0.07 0.06 0.08 0.09 0.09 0.09 0.08 0.07 0.04 0.01 0.00 0.00 0.00
0.12 0.12 0.17 0.37 0.41 0.33 0.31 0.46 0.62 0.49 0.20 0.18 0.29 0.36 0.32 0.26 0.18 0.15 0.09 0.06 0.10 0.13 0.17 0.18 0.21 0.24 0.27 0.42 0.43 0.38 0.34 0.28 0.22 0.20 0.27 0.33 0.31 0.30 0.12 0.03 0.01 0.02 0.03 0.03 0.03 0.03 0.03 0.03 0.01 0.01 0.00 0.00 0.00 0.00
0.09 0.14 0.24 0.31 0.25 0.26 0.31 0.39 0.38 0.14 0.18 0.22 0.28 0.26 0.20 0.15 0.17 0.16 0.16 0.18 0.19 0.22 0.25 0.31 0.33 0.40 0.51 0.42 0.29 0.24 0.23 0.29 0.38 0.23 0.19 0.16 0.12 0.15 0.12 0.09 0.07 0.08 0.07 0.06 0.07 0.06 0.03 0.01 0.00 0.00 0.00 0.00 0.00 0.00
0.10 0.12 0.19 0.14 0.13 0.13 0.16 0.17 0.16 0.21 0.23 0.21 0.44 0.45 0.34 0.30 0.36 0.35 0.34 0.31 0.25 0.21 0.23 0.24 0.31 0.32 0.31 0.30 0.33 0.34 0.41 0.35 0.27 0.25 0.21 0.17 0.18 0.16 0.18 0.18 0.13 0.08 0.06 0.04 0.05 0.05 0.04 0.03 0.01 0.00 0.00 0.00 0.00 0.00
0.18 0.14 0.07 0.06 0.07 0.07 0.05 0.05 0.07 0.06 0.17 0.32 0.37 0.50 0.34 0.39 0.37 0.33 0.36 0.32 0.27 0.25 0.24 0.30 0.27 0.31 0.38 0.35 0.39 0.40 0.44 0.43 0.41 0.36 0.31 0.30 0.28 0.22 0.17 0.14 0.11 0.06 0.05 0.05 0.04 0.04 0.03 0.02 0.00 0.00 0.00 0.00 0.00 0.00
0.19 0.08 0.04 0.11 0.14 0.19 0.07 0.03 0.01 0.10 0.31 0.32 0.32 0.24 0.17 0.22 0.21 0.21 0.17 0.12 0.09 0.08 0.08 0.13 0.18 0.28 0.38 0.40 0.46 0.45 0.42 0.37 0.33 0.25 0.20 0.21 0.23 0.22 0.20 0.16 0.16 0.16 0.11 0.07 0.03 0.02 0.02 0.01 0.00 0.00 0.00 0.00 0.01 0.02
0.00 0.00 0.00 0.04 0.03 0.03 0.00 0.01 0.00 0.05 0.18 0.22 0.15 0.05 0.04 0.05 0.03 0.02 0.02 0.01 0.00 0.00 0.04 0.13 0.28 0.34 0.33 0.35 0.38 0.37 0.35 0.31 0.21 0.11 0.15 0.20 0.24 0.19 0.21 0.19 0.18 0.14 0.11 0.10 0.08 0.07 0.06 0.06 0.07 0.06 0.06 0.05 0.05 0.04
0.02 0.00 0.00 0.01 0.05 0.01 0.00 0.00 0.02 0.02 0.04 0.02 0.01 0.00 0.00 0.01 0.01 0.01 0.01 0.00 0.01 0.04 0.16 0.28 0.29 0.28 0.23 0.20 0.19 0.19 0.19 0.20 0.21 0.16 0.16 0.20 0.23 0.18 0.20 0.23 0.21 0.20 0.17 0.18 0.17 0.17 0.14 0.15 0.13 0.10 0.09 0.06 0.05 0.05
0.01 0.00 0.00 0.01 0.05 0.06 0.02 0.00 0.01 0.00 0.00 0.01 0.01 0.01 0.02 0.03 0.02 0.02 0.02 0.03 0.11 0.21 0.24 0.19 0.14 0.12 0.08 0.09 0.08 0.08 0.12 0.12 0.19 0.29 0.37 0.30 0.31 0.31 0.33 0.37 0.28 0.26 0.25 0.25 0.22 0.18 0.15 0.12 0.09 0.06 0.04 0.04 0.03 0.03
0.00 0.01 0.02 0.02 0.06 0.05 0.04 0.01 0.03 0.01 0.00 0.01 0.03 0.02 0.02 0.02 0.03 0.02 0.04 0.07 0.16 0.23 0.22 0.11 0.07 0.10 0.13 0.20 0.17 0.15 0.13 0.10 0.12 0.17 0.23 0.25 0.27 0.30 0.28 0.28 0.26 0.23 0.19 0.17 0.13 0.11 0.08 0.04 0.01 0.01 0.01 0.03 0.03 0.02
0.01 0.02 0.10 0.12 0.06 0.07 0.05 0.05 0.04 0.04 0.02 0.01 0.02 0.03 0.04 0.03 0.01 0.03 0.04 0.09 0.18 0.11 0.09 0.14 0.15 0.13 0.14 0.14 0.16 0.20 0.25 0.20 0.21 0.23 0.24 0.18 0.17 0.18 0.14 0.11 0.08 0.07 0.06 0.04 0.02 0.01 0.00 0.01 0.02 0.03 0.02 0.02 0.01 0.02
0.07 0.04 0.12 0.14 0.11 0.08 0.04 0.03 0.05 0.04 0.03 0.02 0.03 0.04 0.03 0.02 0.04 0.04 0.06 0.15 0.13 0.13 0.17 0.21 0.16 0.16 0.17 0.19 0.21 0.21 0.17 0.12 0.10 0.10 0.12 0.08 0.07 0.05 0.01 0.00 0.00 0.01 0.00 0.01 0.01 0.02 0.02 0.02 0.01 0.01 0.01 0.02 0.05 0.06
0.21 0.11 0.07 0.07 0.06 0.07 0.04 0.02 0.02 0.03 0.03 0.07 0.09 0.06 0.05 0.07 0.07 0.10 0.15 0.22 0.19 0.20 0.22 0.24 0.23 0.18 0.17 0.15 0.14 0.12 0.08 0.06 0.03 0.02 0.02 0.00 0.01 0.01 0.01 0.01 0.01 0.01 0.00 0.02 0.04 0.03 0.01 0.01 0.01 0.02 0.03 0.04 0.05 0.07
0.16 0.11 0.05 0.05 0.08 0.13 0.19 0.17 0.16 0.16 0.14 0.14 0.11 0.08 0.15 0.19 0.14 0.20 0.23 0.28 0.28 0.29 0.24 0.18 0.12 0.10 0.11 0.10 0.08 0.06 0.03 0.01 0.01 0.01 0.01 0.02 0.02 0.01 0.01 0.03 0.04 0.03 0.01 0.02 0.02 0.03 0.05 0.05 0.03 0.03 0.05 0.04 0.06 0.09
0.09 0.08 0.09 0.11 0.18 0.22 0.21 0.19 0.22 0.25 0.25 0.20 0.17 0.15 0.16 0.14 0.17 0.23 0.28 0.31 0.22 0.16 0.10 0.07 0.05 0.03 0.03 0.04 0.05 0.04 0.02 0.01 0.01 0.01 0.02 0.04 0.02 0.00 0.00 0.01 0.01 0.01 0.01 0.01 0.01 0.02 0.03 0.07 0.07 0.07 0.06 0.08 0.08 0.10
0.09 0.11 0.11 0.11 0.07 0.07 0.11 0.14 0.16 0.16 0.15 0.12 0.10 0.10 0.10 0.12 0.20 0.22 0.24 0.22 0.16 0.11 0.08 0.07 0.09 0.06 0.03 0.02 0.01 0.00 0.00 0.00 0.00 0.00 0.00 0.01 0.02 0.01 0.00 0.01 0.01 0.01 0.01 0.01 0.00 0.00 0.03 0.09 0.09 0.12 0.10 0.10 0.10 0.10
0.02 0.02 0.02 0.01 0.02 0.06 0.08 0.06 0.09 0.09 0.05 0.05 0.03 0.04 0.05 0.12 0.20 0.18 0.14 0.11 0.09 0.10 0.10 0.08 0.06 0.03 0.02 0.02 0.01 0.02 0.03 0.01 0.00 0.00 0.01 0.01 0.02 0.02 0.01 0.02 0.01 0.01 0.02 0.02 0.01 0.01 0.01 0.01 0.04 0.08 0.05 0.06 0.09 0.09
0.01 0.01 0.01 0.02 0.05 0.07 0.06 0.03 0.06 0.07 0.06 0.04 0.04 0.04 0.07 0.11 0.13 0.09 0.08 0.13 0.08 0.06 0.04 0.02 0.01 0.00 0.00 0.01 0.01 0.01 0.02 0.02 0.02 0.01 0.01 0.02 0.02 0.01 0.02 0.02 0.02 0.02 0.02 0.02 0.02 0.03 0.04 0.02 0.05 0.06 0.04 0.04 0.06 0.07
0.01 0.02 0.01 0.05 0.09 0.06 0.04 0.06 0.08 0.11 0.07 0.06 0.07 0.05 0.08 0.07 0.05 0.07 0.06 0.05 0.03 0.01 0.01 0.02 0.01 0.02 0.02 0.01 0.01 0.01 0.02 0.01 0.01 0.01 0.02 0.02 0.01 0.01 0.01 0.01 0.01 0.02 0.03 0.02 0.03 0.05 0.04 0.04 0.05 0.05 0.06 0.05 0.06 0.06
0.01 0.00 0.01 0.01 0.03 0.05 0.03 0.04 0.04 0.04 0.05 0.05 0.08 0.07 0.07 0.07 0.06 0.09 0.08 0.03 0.02 0.01 0.01 0.01 0.01 0.02 0.03 0.01 0.00 0.00 0.00 0.00 0.00 0.01 0.02 0.02 0.01 0.01 0.01 0.01 0.01 0.02 0.01 0.01 0.03 0.04 0.04 0.04 0.04 0.05 0.04 0.04 0.04 0.04

GFSWCAN_prec_precacc_039.txt.gz
Total_Precipitation_Accumulation
0.45 0.48 0.42 0.43 0.34 0.38 0.48 0.50 0.38 0.38 0.38 0.28 0.19 0.15 0.10 0.08 0.12 0.30 0.59 0.51 0.83 0.59 0.17 0.10 0.08 0.03 0.00 0.00 0.01 0.01 0.06 0.07 0.08 0.08 0.03 0.00 0.01 0.00 0.01 0.00 0.00 0.00 0.00 0.00 0.00 0.00 0.00 0.00 0.00 0.00 0.00 0.00 0.00 0.00
0.63 0.45 0.42 0.42 0.33 0.40 0.47 0.48 0.38 0.34 0.30 0.24 0.18 0.10 0.08 0.08 0.13 0.33 0.61 0.50 0.57 0.86 0.34 0.14 0.08 0.02 0.00 0.00 0.00 0.00 0.01 0.01 0.01 0.04 0.02 0.04 0.01 0.00 0.00 0.00 0.00 0.00 0.00 0.00 0.00 0.00 0.00 0.00 0.00 0.00 0.00 0.00 0.00 0.00
0.79 0.48 0.40 0.37 0.37 0.42 0.47 0.39 0.30 0.28 0.27 0.22 0.14 0.10 0.09 0.09 0.14 0.33 0.55 0.66 0.78 1.20 0.54 0.18 0.13 0.04 0.01 0.00 0.02 0.01 0.00 0.01 0.02 0.05 0.05 0.04 0.03 0.00 0.00 0.00 0.00 0.00 0.00 0.00 0.00 0.00 0.00 0.00 0.00 0.00 0.00 0.00 0.00 0.00
0.63 0.52 0.39 0.40 0.40 0.38 0.37 0.30 0.27 0.28 0.24 0.21 0.15 0.15 0.11 0.10 0.14 0.36 0.51 1.02 1.27 1.20 0.92 0.31 0.19 0.14 0.06 0.01 0.01 0.02 0.02 0.00 0.03 0.05 0.08 0.06 0.03 0.02 0.00 0.01 0.00 0.00 0.00 0.00 0.00 0.00 0.00 0.00 0.00 0.00 0.00 0.00 0.00 0.00
0.51 0.44 0.38 0.29 0.26 0.27 0.25 0.25 0.23 0.21 0.22 0.19 0.16 0.14 0.11 0.12 0.18 0.45 0.57 1.15 1.44 1.49 1.13 0.61 0.19 0.18 0.15 0.06 0.01 0.01 0.01 0.01 0.03 0.10 0.09 0.04 0.02 0.03 0.02 0.02 0.00 0.00 0.00 0.00 0.00 0.00 0.00 0.00 0.00 0.00 0.00 0.00 0.00 0.00
0.47 0.42 0.32 0.23 0.20 0.16 0.15 0.18 0.17 0.21 0.21 0.18 0.16 0.16 0.14 0.17 0.30 0.80 1.05 0.89 0.92 1.12 1.20 0.96 0.27 0.15 0.17 0.17 0.21 0.07 0.04 0.03 0.07 0.08 0.07 0.03 0.01 0.02 0.01 0.00 0.00 0.01 0.02 0.02 0.00 0.00 0.00 0.00 0.00 0.00 0.00 0.00 0.00 0.00
0.52 0.44 0.32 0.20 0.13 0.09 0.13 0.17 0.20 0.20 0.23 0.20 0.21 0.23 0.26 0.34 0.44 1.00 0.94 0.81 0.47 0.77 1.04 0.92 0.72 0.23 0.21 0.29 0.57 0.40 0.23 0.13 0.20 0.11 0.04 0.02 0.01 0.02 0.00 0.00 0.00 0.00 0.00 0.00 0.00 0.00 0.00 0.00 0.00 0.00 0.00 0.00 0.00 0.00
0.43 0.33 0.26 0.19 0.15 0.14 0.15 0.17 0.16 0.17 0.21 0.20 0.19 0.27 0.31 0.49 0.62 0.97 0.66 0.63 0.45 0.43 0.66 0.81 0.91 0.51 0.22 0.32 0.46 0.58 0.31 0.36 0.30 0.15 0.05 0.03 0.04 0.02 0.00 0.00 0.00 0.00 0.00 0.00 0.00 0.00 0.00 0.00 0.00 0.00 0.00 0.00 0.00 0.00
0.29 0.23 0.19 0.18 0.20 0.15 0.15 0.13 0.14 0.16 0.15 0.21 0.32 0.40 0.62 0.93 1.06 0.91 0.65 0.68 0.58 0.49 0.57 0.35 0.65 0.50 0.32 0.20 0.30 0.41 0.44 0.38 0.20 0.16 0.07 0.05 0.02 0.02 0.00 0.00 0.00 0.00 0.00 0.00 0.00 0.00 0.00 0.00 0.00 0.00 0.00 0.01 0.03 0.10
0.18 0.17 0.18 0.16 0.19 0.17 0.15 0.14 0.15 0.14 0.21 0.37 0.53 0.72 0.96 0.90 1.07 0.85 1.20 0.99 0.60 0.42 0.26 0.20 0.28 0.40 0.40 0.35 0.32 0.38 0.40 0.38 0.31 0.24 0.17 0.11 0.03 0.01 0.00 0.00 0.00 0.00 0.00 0.00 0.00 0.00 0.00 0.01 0.03 0.07 0.10 0.11 0.11 0.11
0.23 0.18 0.17 0.12 0.12 0.17 0.14 0.13 0.14 0.22 0.40 0.56 0.73 0.91 0.78 0.95 0.99 1.03 1.13 0.79 0.52 0.30 0.08 0.03 0.14 0.40 0.37 0.36 0.39 0.31 0.25 0.33 0.28 0.22 0.23 0.19 0.08 0.03 0.02 0.02 0.01 0.00 0.01 0.01 0.01 0.01 0.01 0.04 0.11 0.14 0.12 0.08 0.04 0.01
0.19 0.11 0.07 0.05 0.08 0.14 0.12 0.10 0.17 0.31 0.44 0.63 0.79 0.68 0.90 0.96 0.82 0.86 0.73 0.50 0.26 0.08 0.04 0.04 0.04 0.18 0.42 0.41 0.41 0.35 0.21 0.19 0.16 0.15 0.17 0.13 0.10 0.11 0.06 0.05 0.05 0.05 0.05 0.04 0.04 0.09 0.15 0.15 0.14 0.10 0.04 0.01 0.02 0.04
0.21 0.16 0.12 0.09 0.05 0.09 0.12 0.18 0.40 0.53 0.79 0.85 0.69 0.76 0.86 0.89 0.90 0.75 0.49 0.30 0.18 0.03 0.05 0.09 0.12 0.09 0.28 0.47 0.51 0.54 0.50 0.30 0.12 0.15 0.12 0.11 0.08 0.13 0.24 0.30 0.30 0.24 0.19 0.19 0.21 0.19 0.13 0.07 0.05 0.06 0.10 0.14 0.16 0.17
0.13 0.14 0.16 0.18 0.21 0.27 0.31 0.42 0.81 1.09 0.84 0.66 0.57 0.76 0.68 0.70 0.46 0.38 0.24 0.19 0.14 0.11 0.08 0.10 0.19 0.18 0.15 0.41 0.71 0.78 0.75 0.43 0.35 0.19 0.14 0.17 0.23 0.39 0.35 0.23 0.20 0.19 0.15 0.15 0.13 0.11 0.11 0.12 0.16 0.18 0.16 0.14 0.11 0.08
0.12 0.12 0.17 0.37 0.41 0.34 0.35 0.55 0.78 0.60 0.31 0.32 0.34 0.39 0.38 0.36 0.30 0.32 0.24 0.14 0.15 0.17 0.20 0.25 0.31 0.27 0.30 0.50 0.55 0.53 0.51 0.40 0.31 0.30 0.35 0.42 0.39 0.36 0.16 0.06 0.05 0.06 0.07 0.07 0.08 0.09 0.10 0.10 0.09 0.09 0.07 0.04 0.02 0.01
0.09 0.14 0.26 0.32 0.26 0.29 0.37 0.55 0.53 0.15 0.22 0.31 0.40 0.40 0.35 0.32 0.34 0.32 0.26 0.22 0.22 0.23 0.27 0.34 0.37 0.42 0.56 0.45 0.32 0.31 0.31 0.37 0.47 0.32 0.30 0.26 0.21 0.23 0.20 0.17 0.16 0.17 0.14 0.13 0.16 0.14 0.11 0.07 0.04 0.02 0.00 0.00 0.00 0.00
0.11 0.13 0.21 0.18 0.21 0.26 0.32 0.33 0.22 0.21 0.26 0.27 0.52 0.56 0.44 0.37 0.42 0.41 0.38 0.35 0.27 0.22 0.26 0.25 0.33 0.34 0.33 0.31 0.35 0.36 0.45 0.43 0.38 0.37 0.34 0.28 0.28 0.28 0.30 0.29 0.21 0.12 0.10 0.09 0.10 0.11 0.09 0.07 0.03 0.00 0.00 0.00 0.00 0.00
0.19 0.16 0.12 0.11 0.14 0.13 0.12 0.08 0.07 0.06 0.19 0.36 0.41 0.56 0.36 0.42 0.39 0.35 0.39 0.34 0.28 0.27 0.26 0.31 0.28 0.31 0.39 0.37 0.41 0.44 0.49 0.51 0.54 0.48 0.41 0.39 0.37 0.32 0.29 0.23 0.18 0.12 0.11 0.12 0.10 0.09 0.08 0.06 0.04 0.02 0.01 0.00 0.00 0.00
0.38 0.17 0.16 0.25 0.23 0.24 0.07 0.03 0.01 0.11 0.34 0.36 0.35 0.26 0.17 0.22 0.21 0.22 0.17 0.12 0.09 0.08 0.08 0.13 0.19 0.30 0.42 0.44 0.51 0.51 0.49 0.45 0.43 0.35 0.28 0.30 0.32 0.31 0.29 0.23 0.22 0.23 0.17 0.14 0.10 0.08 0.08 0.06 0.05 0.04 0.02 0.02 0.02 0.03
0.24 0.17 0.19 0.24 0.15 0.14 0.03 0.01 0.00 0.06 0.19 0.23 0.15 0.05 0.04 0.05 0.03 0.02 0.02 0.01 0.00 0.00 0.05 0.15 0.32 0.39 0.39 0.42 0.46 0.46 0.43 0.39 0.30 0.17 0.20 0.26 0.31 0.25 0.27 0.25 0.24 0.20 0.16 0.15 0.14 0.12 0.10 0.10 0.12 0.11 0.10 0.09 0.08 0.07
0.06 0.07 0.09 0.07 0.07 0.02 0.01 0.01 0.02 0.03 0.04 0.02 0.02 0.00 0.00 0.01 0.01 0.01 0.01 0.00 0.01 0.05 0.19 0.32 0.34 0.33 0.28 0.26 0.25 0.25 0.26 0.26 0.26 0.19 0.21 0.25 0.29 0.22 0.24 0.28 0.26 0.23 0.20 0.21 0.20 0.21 0.17 0.17 0.16 0.13 0.11 0.08 0.07 0.07
0.01 0.01 0.00 0.01 0.05 0.06 0.02 0.00 0.01 0.00 0.00 0.01 0.01 0.01 0.02 0.03 0.02 0.02 0.02 0.04 0.12 0.25 0.28 0.23 0.18 0.16 0.12 0.12 0.12 0.11 0.15 0.15 0.21 0.31 0.39 0.32 0.33 0.33 0.35 0.40 0.29 0.28 0.26 0.27 0.23 0.20 0.17 0.14 0.10 0.07 0.05 0.04 0.03 0.03
0.00 0.01 0.02 0.02 0.06 0.05 0.04 0.01 0.03 0.01 0.00 0.01 0.03 0.02 0.02 0.02 0.03 0.02 0.04 0.08 0.18 0.27 0.26 0.14 0.09 0.11 0.14 0.22 0.18 0.15 0.13 0.10 0.12 0.18 0.23 0.26 0.28 0.30 0.29 0.29 0.27 0.23 0.20 0.18 0.14 0.11 0.08 0.04 0.01 0.01 0.01 0.03 0.03 0.02
0.01 0.02 0.10 0.12 0.06 0.07 0.05 0.05 0.04 0.04 0.02 0.01 0.02 0.03 0.04 0.03 0.01 0.03 0.04 0.10 0.21 0.13 0.10 0.15 0.15 0.13 0.14 0.14 0.16 0.20 0.25 0.20 0.21 0.23 0.24 0.18 0.17 0.18 0.14 0.11 0.08 0.07 0.06 0.04 0.02 0.01 0.00 0.01 0.02 0.03 0.02 0.02 0.01 0.02
0.07 0.04 0.12 0.14 0.11 0.08 0.04 0.03 0.05 0.04 0.03 0.02 0.03 0.05 0.03 0.02 0.04 0.04 0.06 0.16 0.14 0.14 0.18 0.21 0.17 0.16 0.17 0.19 0.21 0.21 0.17 0.12 0.10 0.10 0.12 0.08 0.07 0.05 0.01 0.00 0.00 0.01 0.00 0.01 0.01 0.02 0.02 0.02 0.01 0.01 0.01 0.02 0.05 0.06
0.21 0.11 0.07 0.08 0.06 0.07 0.04 0.02 0.03 0.03 0.03 0.07 0.10 0.07 0.05 0.07 0.07 0.11 0.15 0.23 0.20 0.21 0.23 0.24 0.23 0.18 0.17 0.15 0.14 0.12 0.08 0.06 0.03 0.02 0.02 0.00 0.01 0.01 0.01 0.01 0.01 0.01 0.01 0.02 0.04 0.03 0.01 0.01 0.01 0.02 0.03 0.04 0.05 0.07
0.16 0.11 0.05 0.06 0.08 0.13 0.19 0.17 0.16 0.16 0.14 0.15 0.11 0.09 0.15 0.19 0.15 0.21 0.24 0.29 0.28 0.30 0.24 0.18 0.12 0.10 0.11 0.11 0.08 0.07 0.03 0.01 0.01 0.01 0.01 0.02 0.02 0.01 0.01 0.03 0.04 0.03 0.01 0.02 0.02 0.03 0.05 0.05 0.04 0.04 0.05 0.04 0.06 0.09
0.09 0.08 0.09 0.11 0.18 0.22 0.21 0.19 0.22 0.25 0.26 0.20 0.17 0.15 0.16 0.14 0.17 0.24 0.30 0.32 0.22 0.16 0.10 0.07 0.05 0.03 0.03 0.04 0.05 0.04 0.02 0.01 0.01 0.01 0.02 0.04 0.02 0.00 0.00 0.01 0.01 0.01 0.01 0.01 0.01 0.02 0.04 0.07 0.07 0.07 0.07 0.08 0.08 0.10
0.09 0.11 0.11 0.11 0.07 0.07 0.11 0.14 0.16 0.17 0.16 0.12 0.10 0.10 0.10 0.12 0.21 0.23 0.25 0.23 0.17 0.11 0.08 0.07 0.09 0.06 0.03 0.02 0.01 0.00 0.00 0.00 0.00 0.00 0.00 0.01 0.02 0.01 0.00 0.01 0.01 0.01 0.01 0.01 0.00 0.00 0.03 0.09 0.09 0.12 0.10 0.10 0.10 0.10
0.02 0.02 0.02 0.01 0.03 0.06 0.08 0.06 0.09 0.09 0.05 0.05 0.03 0.04 0.05 0.13 0.22 0.20 0.15 0.11 0.09 0.10 0.10 0.08 0.06 0.03 0.02 0.02 0.01 0.02 0.03 0.01 0.00 0.00 0.01 0.01 0.02 0.02 0.01 0.02 0.01 0.01 0.02 0.02 0.01 0.01 0.01 0.01 0.04 0.08 0.05 0.06 0.09 0.09
0.01 0.01 0.01 0.02 0.05 0.07 0.06 0.03 0.06 0.07 0.06 0.04 0.04 0.04 0.07 0.12 0.14 0.10 0.09 0.13 0.08 0.06 0.04 0.02 0.01 0.00 0.00 0.01 0.01 0.01 0.02 0.02 0.02 0.01 0.01 0.02 0.02 0.01 0.02 0.02 0.02 0.02 0.02 0.02 0.02 0.03 0.04 0.02 0.05 0.06 0.04 0.04 0.06 0.07
0.01 0.02 0.01 0.05 0.10 0.06 0.04 0.06 0.08 0.11 0.07 0.06 0.07 0.05 0.08 0.07 0.05 0.07 0.06 0.05 0.03 0.01 0.01 0.02 0.01 0.02 0.02 0.01 0.01 0.01 0.02 0.01 0.01 0.01 0.02 0.02 0.01 0.01 0.01 0.01 0.01 0.02 0.03 0.02 0.03 0.05 0.04 0.04 0.05 0.05 0.06 0.05 0.06 0.06
0.01 0.00 0.01 0.01 0.04 0.06 0.04 0.04 0.04 0.04 0.05 0.05 0.08 0.07 0.07 0.07 0.06 0.09 0.08 0.03 0.02 0.01 0.01 0.01 0.01 0.02 0.03 0.01 0.00 0.00 0.00 0.00 0.00 0.01 0.02 0.03 0.02 0.01 0.01 0.01 0.01 0.02 0.01 0.01 0.03 0.04 0.04 0.04 0.04 0.05 0.04 0.04 0.04 0.04

GFSWCAN_prec_precacc_042.txt.gz
Total_Precipitation_Accumulation
0.47 0.49 0.43 0.44 0.37 0.41 0.54 0.56 0.43 0.42 0.40 0.31 0.31 0.30 0.27 0.16 0.18 0.31 0.59 0.51 0.84 0.62 0.19 0.13 0.15 0.12 0.03 0.01 0.03 0.02 0.06 0.07 0.08 0.08 0.03 0.00 0.01 0.00 0.01 0.00 0.00 0.00 0.00 0.00 0.00 0.00 0.00 0.00 0.00 0.00 0.00 0.00 0.00 0.00
0.66 0.47 0.43 0.44 0.35 0.42 0.51 0.51 0.39 0.36 0.31 0.27 0.27 0.26 0.20 0.16 0.21 0.33 0.62 0.50 0.58 0.88 0.45 0.15 0.12 0.06 0.03 0.00 0.00 0.01 0.01 0.01 0.01 0.04 0.02 0.04 0.01 0.00 0.00 0.00 0.00 0.00 0.00 0.00 0.00 0.00 0.00 0.00 0.00 0.00 0.00 0.00 0.00 0.00
0.85 0.51 0.42 0.39 0.39 0.45 0.49 0.41 0.31 0.29 0.28 0.28 0.26 0.25 0.20 0.17 0.23 0.33 0.55 0.66 0.78 1.20 0.57 0.21 0.13 0.08 0.08 0.01 0.02 0.01 0.00 0.01 0.02 0.05 0.05 0.04 0.03 0.00 0.00 0.00 0.00 0.00 0.01 0.00 0.00 0.00 0.00 0.00 0.00 0.00 0.00 0.00 0.00 0.00
0.72 0.57 0.43 0.42 0.42 0.40 0.39 0.31 0.29 0.31 0.28 0.31 0.27 0.28 0.21 0.23 0.22 0.36 0.52 1.02 1.27 1.20 0.93 0.32 0.23 0.18 0.11 0.06 0.02 0.02 0.02 0.00 0.03 0.05 0.08 0.06 0.03 0.02 0.01 0.01 0.00 0.00 0.00 0.00 0.00 0.00 0.00 0.00 0.00 0.00 0.00 0.00 0.00 0.00
0.59 0.53 0.45 0.33 0.31 0.31 0.28 0.30 0.30 0.29 0.32 0.31 0.28 0.26 0.27 0.24 0.23 0.46 0.57 1.15 1.44 1.51 1.17 0.62 0.21 0.21 0.17 0.07 0.02 0.01 0.01 0.01 0.03 0.10 0.09 0.04 0.02 0.03 0.02 0.02 0.00 0.00 0.00 0.00 0.00 0.00 0.00 0.00 0.00 0.00 0.00 0.00 0.00 0.00
0.50 0.48 0.39 0.29 0.26 0.22 0.21 0.25 0.26 0.29 0.29 0.26 0.27 0.29 0.26 0.24 0.32 0.85 1.11 0.91 0.92 1.12 1.29 1.02 0.30 0.16 0.20 0.21 0.23 0.08 0.05 0.03 0.08 0.09 0.07 0.03 0.01 0.02 0.01 0.00 0.00 0.01 0.02 0.02 0.01 0.01 0.00 0.00 0.00 0.00 0.00 0.00 0.00 0.00
0.53 0.46 0.36 0.24 0.17 0.13 0.16 0.20 0.23 0.24 0.27 0.26 0.27 0.30 0.31 0.36 0.45 1.01 0.95 0.81 0.47 0.80 1.08 0.94 0.72 0.24 0.24 0.39 0.71 0.46 0.28 0.16 0.21 0.13 0.06 0.03 0.01 0.02 0.00 0.00 0.00 0.00 0.00 0.01 0.00 0.00 0.00 0.00 0.00 0.00 0.00 0.00 0.00 0.00
0.43 0.33 0.26 0.20 0.15 0.15 0.16 0.18 0.18 0.20 0.25 0.24 0.22 0.29 0.32 0.49 0.63 0.97 0.68 0.63 0.46 0.49 0.70 0.83 0.93 0.60 0.26 0.38 0.58 0.67 0.38 0.43 0.35 0.17 0.06 0.03 0.04 0.02 0.01 0.00 0.00 0.00 0.00 0.00 0.00 0.00 0.00 0.00 0.00 0.00 0.00 0.00 0.00 0.00
0.29 0.23 0.20 0.19 0.20 0.16 0.15 0.13 0.16 0.18 0.16 0.21 0.33 0.41 0.65 0.98 1.09 0.97 0.69 0.69 0.61 0.53 0.58 0.36 0.75 0.75 0.41 0.26 0.38 0.51 0.52 0.46 0.23 0.16 0.08 0.07 0.03 0.02 0.00 0.00 0.00 0.00 0.00 0.00 0.00 0.00 0.00 0.00 0.00 0.00 0.00 0.01 0.03 0.10
0.19 0.18 0.19 0.16 0.19 0.17 0.15 0.14 0.15 0.14 0.22 0.38 0.54 0.76 1.00 0.92 1.10 0.91 1.24 1.10 0.66 0.45 0.28 0.21 0.35 0.74 0.52 0.41 0.34 0.50 0.52 0.44 0.33 0.25 0.17 0.11 0.03 0.01 0.00 0.00 0.00 0.00 0.00 0.00 0.00 0.00 0.00 0.01 0.03 0.07 0.10 0.11 0.11 0.11
0.25 0.21 0.19 0.13 0.13 0.17 0.14 0.13 0.14 0.22 0.42 0.60 0.84 0.97 0.79 0.97 1.04 1.05 1.16 0.92 0.60 0.33 0.09 0.03 0.16 0.68 0.62 0.40 0.39 0.36 0.47 0.54 0.32 0.23 0.24 0.20 0.08 0.03 0.02 0.02 0.01 0.00 0.01 0.01 0.01 0.01 0.01 0.04 0.11 0.14 0.12 0.08 0.04 0.01
0.23 0.14 0.09 0.07 0.09 0.14 0.12 0.10 0.18 0.33 0.47 0.68 0.84 0.73 0.94 1.01 0.84 0.87 0.78 0.56 0.29 0.08 0.04 0.04 0.05 0.22 0.48 0.44 0.41 0.35 0.22 0.26 0.20 0.15 0.17 0.14 0.10 0.11 0.06 0.05 0.05 0.05 0.05 0.04 0.05 0.09 0.15 0.16 0.16 0.12 0.06 0.03 0.04 0.06
0.23 0.18 0.13 0.10 0.05 0.09 0.16 0.29 0.47 0.57 0.85 0.92 0.74 0.78 0.88 0.90 0.91 0.81 0.63 0.38 0.22 0.04 0.05 0.10 0.12 0.10 0.29 0.47 0.51 0.54 0.51 0.33 0.18 0.19 0.15 0.14 0.09 0.13 0.24 0.30 0.30 0.24 0.23 0.24 0.25 0.21 0.16 0.11 0.09 0.10 0.14 0.20 0.24 0.29
0.13 0.15 0.17 0.20 0.29 0.46 0.49 0.47 0.82 1.11 0.93 0.70 0.60 0.77 0.73 0.78 0.56 0.51 0.45 0.35 0.20 0.12 0.09 0.12 0.21 0.19 0.16 0.43 0.76 0.84 0.83 0.53 0.51 0.30 0.21 0.25 0.30 0.46 0.42 0.31 0.27 0.28 0.28 0.29 0.31 0.32 0.31 0.31 0.34 0.34 0.31 0.29 0.24 0.20
0.12 0.12 0.18 0.40 0.47 0.41 0.38 0.57 0.82 0.72 0.49 0.48 0.37 0.45 0.52 0.51 0.44 0.51 0.48 0.33 0.29 0.29 0.29 0.39 0.46 0.38 0.34 0.59 0.67 0.63 0.60 0.47 0.38 0.36 0.43 0.55 0.55 0.53 0.35 0.25 0.20 0.17 0.17 0.18 0.23 0.26 0.29 0.28 0.22 0.21 0.19 0.15 0.11 0.10
0.09 0.15 0.26 0.32 0.26 0.29 0.37 0.58 0.66 0.29 0.31 0.33 0.43 0.49 0.45 0.48 0.53 0.54 0.45 0.38 0.39 0.42 0.41 0.52 0.49 0.48 0.60 0.51 0.36 0.36 0.36 0.44 0.58 0.46 0.45 0.44 0.38 0.38 0.34 0.30 0.27 0.27 0.24 0.24 0.26 0.24 0.20 0.16 0.12 0.10 0.09 0.08 0.08 0.05
0.12 0.15 0.22 0.18 0.21 0.26 0.32 0.36 0.28 0.30 0.34 0.32 0.62 0.69 0.60 0.51 0.55 0.54 0.50 0.43 0.32 0.25 0.27 0.26 0.33 0.35 0.34 0.31 0.36 0.38 0.49 0.50 0.48 0.51 0.49 0.44 0.42 0.41 0.42 0.38 0.28 0.18 0.15 0.16 0.18 0.19 0.16 0.15 0.09 0.04 0.03 0.03 0.02 0.01
0.21 0.17 0.12 0.12 0.15 0.14 0.12 0.08 0.08 0.08 0.23 0.43 0.47 0.64 0.41 0.46 0.43 0.37 0.40 0.36 0.28 0.27 0.26 0.32 0.28 0.32 0.39 0.37 0.44 0.47 0.54 0.57 0.62 0.58 0.52 0.51 0.49 0.44 0.38 0.29 0.24 0.17 0.17 0.18 0.16 0.15 0.13 0.11 0.07 0.06 0.04 0.03 0.02 0.01
0.46 0.22 0.23 0.30 0.26 0.25 0.08 0.05 0.01 0.13 0.38 0.39 0.38 0.27 0.18 0.23 0.22 0.22 0.17 0.12 0.09 0.08 0.08 0.13 0.19 0.31 0.44 0.47 0.54 0.54 0.54 0.50 0.49 0.43 0.36 0.38 0.40 0.38 0.35 0.29 0.27 0.28 0.21 0.18 0.13 0.11 0.11 0.09 0.08 0.07 0.05 0.04 0.04 0.06
0.41 0.31 0.29 0.30 0.19 0.20 0.05 0.02 0.00 0.07 0.20 0.23 0.15 0.05 0.04 0.05 0.03 0.02 0.02 0.01 0.00 0.00 0.05 0.15 0.34 0.42 0.43 0.47 0.51 0.50 0.48 0.44 0.36 0.23 0.25 0.31 0.36 0.30 0.31 0.29 0.28 0.24 0.19 0.18 0.16 0.14 0.13 0.12 0.14 0.14 0.13 0.12 0.11 0.10
0.19 0.17 0.15 0.11 0.09 0.04 0.03 0.01 0.03 0.03 0.04 0.03 0.02 0.00 0.00 0.01 0.01 0.01 0.01 0.00 0.01 0.05 0.21 0.35 0.37 0.37 0.32 0.31 0.30 0.30 0.31 0.31 0.30 0.22 0.24 0.28 0.33 0.24 0.27 0.31 0.28 0.25 0.22 0.23 0.21 0.22 0.18 0.18 0.17 0.14 0.12 0.09 0.08 0.08
0.05 0.02 0.00 0.02 0.05 0.06 0.02 0.00 0.01 0.00 0.00 0.01 0.01 0.01 0.02 0.03 0.02 0.02 0.02 0.04 0.13 0.28 0.31 0.25 0.20 0.18 0.13 0.14 0.14 0.13 0.17 0.16 0.22 0.32 0.40 0.33 0.34 0.33 0.36 0.41 0.30 0.28 0.27 0.27 0.24 0.20 0.17 0.14 0.10 0.07 0.05 0.04 0.03 0.03
0.00 0.01 0.02 0.02 0.06 0.05 0.04 0.01 0.03 0.01 0.00 0.01 0.03 0.02 0.02 0.02 0.03 0.02 0.04 0.09 0.20 0.30 0.29 0.16 0.11 0.12 0.15 0.23 0.18 0.15 0.13 0.10 0.12 0.18 0.23 0.26 0.28 0.30 0.29 0.29 0.27 0.23 0.20 0.18 0.14 0.11 0.08 0.04 0.01 0.01 0.01 0.03 0.03 0.02
0.01 0.02 0.10 0.12 0.06 0.07 0.05 0.05 0.04 0.04 0.02 0.01 0.02 0.04 0.04 0.03 0.01 0.03 0.05 0.11 0.23 0.15 0.11 0.16 0.16 0.13 0.14 0.15 0.16 0.20 0.26 0.20 0.21 0.23 0.24 0.18 0.17 0.18 0.14 0.11 0.08 0.07 0.06 0.04 0.02 0.01 0.00 0.01 0.02 0.03 0.02 0.02 0.01 0.02
0.07 0.04 0.12 0.14 0.11 0.08 0.04 0.03 0.05 0.04 0.03 0.02 0.03 0.05 0.03 0.02 0.04 0.04 0.06 0.17 0.15 0.15 0.19 0.22 0.17 0.16 0.17 0.20 0.21 0.21 0.17 0.12 0.10 0.10 0.12 0.08 0.07 0.05 0.01 0.00 0.00 0.01 0.00 0.01 0.01 0.02 0.02 0.02 0.01 0.01 0.01 0.02 0.05 0.06
0.21 0.11 0.07 0.08 0.06 0.07 0.04 0.03 0.03 0.03 0.03 0.07 0.10 0.07 0.05 0.07 0.07 0.11 0.16 0.24 0.20 0.22 0.24 0.25 0.24 0.18 0.17 0.15 0.14 0.12 0.08 0.06 0.03 0.02 0.02 0.00 0.01 0.01 0.01 0.01 0.01 0.01 0.01 0.03 0.04 0.04 0.01 0.01 0.01 0.02 0.03 0.04 0.05 0.08
0.16 0.11 0.05 0.06 0.08 0.13 0.20 0.17 0.16 0.16 0.14 0.15 0.12 0.09 0.15 0.19 0.15 0.22 0.25 0.29 0.29 0.30 0.25 0.19 0.12 0.10 0.11 0.11 0.08 0.07 0.03 0.01 0.01 0.01 0.01 0.02 0.02 0.01 0.01 0.03 0.04 0.03 0.01 0.02 0.02 0.03 0.05 0.05 0.04 0.04 0.05 0.05 0.06 0.09
0.09 0.08 0.09 0.11 0.18 0.22 0.21 0.19 0.23 0.26 0.26 0.21 0.17 0.15 0.16 0.14 0.18 0.25 0.30 0.33 0.23 0.16 0.10 0.07 0.05 0.03 0.03 0.04 0.05 0.04 0.02 0.01 0.01 0.01 0.02 0.04 0.02 0.00 0.00 0.01 0.01 0.01 0.01 0.01 0.01 0.02 0.04 0.07 0.07 0.07 0.07 0.08 0.08 0.10
0.09 0.11 0.11 0.11 0.07 0.07 0.11 0.15 0.16 0.17 0.16 0.12 0.10 0.10 0.11 0.12 0.22 0.24 0.26 0.24 0.17 0.11 0.08 0.07 0.09 0.06 0.03 0.02 0.01 0.00 0.00 0.00 0.00 0.00 0.00 0.01 0.02 0.01 0.00 0.01 0.01 0.01 0.01 0.01 0.00 0.00 0.04 0.09 0.10 0.12 0.10 0.10 0.10 0.10
0.02 0.02 0.02 0.01 0.03 0.07 0.08 0.06 0.10 0.09 0.05 0.05 0.04 0.04 0.05 0.14 0.23 0.21 0.15 0.12 0.09 0.10 0.10 0.08 0.06 0.03 0.02 0.02 0.01 0.02 0.03 0.01 0.00 0.00 0.01 0.01 0.02 0.02 0.01 0.02 0.01 0.01 0.02 0.02 0.01 0.01 0.01 0.01 0.04 0.08 0.05 0.06 0.09 0.09
0.01 0.01 0.01 0.02 0.05 0.07 0.06 0.03 0.06 0.07 0.06 0.04 0.04 0.04 0.07 0.12 0.14 0.11 0.09 0.13 0.08 0.06 0.04 0.02 0.01 0.00 0.00 0.01 0.01 0.01 0.02 0.02 0.02 0.01 0.01 0.02 0.02 0.01 0.02 0.02 0.02 0.02 0.02 0.02 0.02 0.03 0.04 0.02 0.05 0.06 0.04 0.04 0.06 0.07
0.01 0.02 0.01 0.05 0.10 0.06 0.05 0.07 0.08 0.11 0.08 0.06 0.07 0.05 0.08 0.07 0.06 0.07 0.06 0.05 0.03 0.01 0.01 0.02 0.02 0.02 0.02 0.01 0.01 0.01 0.02 0.01 0.01 0.01 0.02 0.02 0.02 0.02 0.02 0.01 0.02 0.02 0.03 0.02 0.03 0.05 0.04 0.04 0.05 0.05 0.06 0.05 0.06 0.06
0.01 0.00 0.01 0.01 0.04 0.06 0.04 0.05 0.05 0.04 0.05 0.05 0.08 0.07 0.08 0.07 0.06 0.09 0.08 0.03 0.02 0.01 0.01 0.01 0.01 0.02 0.03 0.01 0.00 0.00 0.00 0.00 0.00 0.01 0.02 0.03 0.02 0.01 0.01 0.01 0.02 0.02 0.01 0.01 0.03 0.04 0.04 0.04 0.04 0.05 0.04 0.04 0.04 0.04

GFSWCAN_prec_precacc_045.txt.gz
Total_Precipitation_Accumulation
0.51 0.51 0.43 0.44 0.37 0.41 0.56 0.62 0.47 0.47 0.48 0.37 0.37 0.33 0.29 0.29 0.46 0.49 0.68 0.52 0.86 0.66 0.23 0.17 0.18 0.16 0.05 0.03 0.06 0.03 0.10 0.10 0.10 0.09 0.03 0.00 0.01 0.00 0.01 0.00 0.01 0.00 0.01 0.01 0.01 0.01 0.00 0.00 0.00 0.00 0.00 0.00 0.00 0.00
0.68 0.47 0.43 0.44 0.35 0.44 0.55 0.55 0.43 0.41 0.38 0.33 0.32 0.28 0.24 0.28 0.46 0.48 0.68 0.51 0.62 0.95 0.55 0.17 0.13 0.11 0.07 0.01 0.01 0.02 0.03 0.02 0.01 0.04 0.02 0.05 0.02 0.01 0.00 0.00 0.00 0.01 0.01 0.02 0.00 0.00 0.00 0.00 0.00 0.00 0.00 0.00 0.00 0.00
0.86 0.51 0.42 0.40 0.40 0.48 0.52 0.45 0.33 0.32 0.31 0.31 0.29 0.26 0.25 0.33 0.44 0.43 0.59 0.68 0.83 1.25 0.61 0.22 0.14 0.08 0.13 0.03 0.03 0.08 0.02 0.01 0.02 0.05 0.05 0.04 0.03 0.01 0.00 0.00 0.00 0.00 0.01 0.01 0.00 0.00 0.00 0.00 0.00 0.00 0.00 0.00 0.00 0.00
0.73 0.58 0.43 0.44 0.45 0.43 0.41 0.33 0.30 0.31 0.29 0.31 0.28 0.30 0.31 0.47 0.38 0.40 0.53 1.03 1.28 1.22 0.95 0.33 0.24 0.18 0.13 0.12 0.04 0.05 0.04 0.01 0.04 0.05 0.09 0.06 0.03 0.02 0.01 0.01 0.00 0.00 0.00 0.00 0.00 0.00 0.00 0.00 0.00 0.00 0.00 0.00 0.00 0.00
0.62 0.53 0.45 0.36 0.34 0.33 0.29 0.31 0.30 0.30 0.33 0.32 0.31 0.35 0.53 0.47 0.31 0.47 0.59 1.17 1.45 1.52 1.19 0.62 0.21 0.22 0.18 0.14 0.06 0.03 0.04 0.03 0.03 0.11 0.10 0.04 0.02 0.03 0.03 0.02 0.00 0.00 0.00 0.00 0.00 0.00 0.00 0.00 0.00 0.00 0.00 0.00 0.00 0.00
0.55 0.50 0.40 0.30 0.28 0.24 0.22 0.26 0.28 0.32 0.32 0.32 0.40 0.54 0.44 0.29 0.33 0.87 1.20 0.95 0.93 1.12 1.29 1.03 0.31 0.16 0.20 0.23 0.26 0.10 0.07 0.06 0.10 0.10 0.09 0.03 0.01 0.02 0.01 0.00 0.00 0.01 0.02 0.02 0.01 0.01 0.00 0.00 0.00 0.00 0.00 0.00 0.00 0.00
0.58 0.52 0.40 0.27 0.19 0.15 0.20 0.25 0.28 0.30 0.37 0.41 0.44 0.39 0.33 0.36 0.46 1.05 1.01 0.83 0.47 0.80 1.08 0.95 0.74 0.26 0.25 0.40 0.75 0.51 0.33 0.19 0.24 0.16 0.08 0.04 0.02 0.02 0.01 0.00 0.00 0.00 0.00 0.01 0.00 0.00 0.00 0.00 0.00 0.00 0.00 0.00 0.00 0.00
0.45 0.36 0.31 0.25 0.20 0.19 0.21 0.22 0.22 0.26 0.31 0.30 0.25 0.31 0.35 0.53 0.66 0.99 0.68 0.63 0.46 0.49 0.71 0.85 0.95 0.65 0.33 0.47 0.74 0.76 0.48 0.51 0.40 0.20 0.07 0.05 0.07 0.03 0.01 0.00 0.00 0.00 0.00 0.00 0.00 0.00 0.00 0.00 0.00 0.00 0.00 0.00 0.00 0.00
0.30 0.24 0.22 0.22 0.24 0.19 0.17 0.16 0.19 0.22 0.21 0.27 0.39 0.46 0.69 1.01 1.12 0.98 0.69 0.70 0.62 0.56 0.61 0.37 0.76 0.82 0.59 0.47 0.62 0.61 0.64 0.55 0.31 0.21 0.10 0.09 0.06 0.05 0.00 0.00 0.00 0.00 0.00 0.00 0.00 0.00 0.00 0.00 0.00 0.00 0.00 0.01 0.03 0.10
0.19 0.19 0.19 0.18 0.20 0.18 0.16 0.16 0.17 0.16 0.23 0.38 0.55 0.76 1.01 0.94 1.15 0.96 1.29 1.17 0.72 0.52 0.36 0.24 0.36 0.85 0.73 0.63 0.62 0.62 0.63 0.53 0.37 0.30 0.22 0.16 0.05 0.02 0.00 0.00 0.00 0.00 0.00 0.00 0.00 0.00 0.00 0.01 0.03 0.07 0.10 0.11 0.11 0.11
0.25 0.21 0.20 0.14 0.13 0.17 0.14 0.14 0.14 0.22 0.42 0.60 0.84 0.98 0.81 1.00 1.10 1.14 1.19 0.98 0.65 0.35 0.11 0.04 0.18 0.72 0.74 0.55 0.57 0.42 0.65 0.61 0.37 0.25 0.28 0.22 0.10 0.03 0.02 0.02 0.01 0.00 0.01 0.01 0.01 0.01 0.01 0.04 0.11 0.14 0.12 0.08 0.04 0.01
0.23 0.14 0.09 0.07 0.09 0.15 0.12 0.10 0.18 0.33 0.50 0.73 0.87 0.74 0.98 1.06 0.88 0.88 0.78 0.59 0.31 0.10 0.06 0.06 0.07 0.25 0.69 0.69 0.51 0.37 0.34 0.30 0.34 0.20 0.21 0.20 0.14 0.12 0.07 0.05 0.05 0.05 0.05 0.04 0.05 0.09 0.15 0.16 0.16 0.12 0.06 0.03 0.04 0.07
0.23 0.18 0.13 0.10 0.06 0.09 0.16 0.30 0.49 0.60 0.91 0.99 0.80 0.81 0.90 0.92 0.93 0.82 0.68 0.43 0.26 0.05 0.07 0.13 0.17 0.23 0.42 0.63 0.56 0.54 0.51 0.36 0.34 0.36 0.25 0.20 0.13 0.14 0.25 0.31 0.30 0.24 0.23 0.24 0.25 0.21 0.16 0.11 0.10 0.11 0.15 0.22 0.28 0.35
0.14 0.15 0.17 0.21 0.31 0.47 0.51 0.49 0.85 1.16 0.94 0.72 0.61 0.77 0.78 0.79 0.59 0.54 0.49 0.41 0.23 0.14 0.10 0.13 0.28 0.28 0.19 0.44 0.77 0.85 0.86 0.59 0.62 0.37 0.25 0.28 0.35 0.50 0.45 0.34 0.30 0.33 0.33 0.35 0.38 0.38 0.37 0.38 0.47 0.54 0.56 0.56 0.50 0.48
0.12 0.13 0.23 0.51 0.58 0.43 0.39 0.57 0.82 0.72 0.49 0.50 0.38 0.46 0.56 0.58 0.48 0.55 0.51 0.35 0.30 0.31 0.31 0.41 0.51 0.41 0.36 0.61 0.71 0.67 0.63 0.50 0.41 0.40 0.47 0.59 0.62 0.60 0.43 0.35 0.31 0.32 0.33 0.34 0.37 0.38 0.42 0.43 0.37 0.37 0.36 0.32 0.25 0.24
0.09 0.15 0.29 0.35 0.26 0.29 0.37 0.59 0.67 0.30 0.32 0.35 0.45 0.56 0.53 0.56 0.61 0.61 0.52 0.44 0.46 0.52 0.55 0.63 0.59 0.57 0.66 0.57 0.41 0.42 0.39 0.47 0.61 0.50 0.51 0.54 0.47 0.47 0.44 0.39 0.38 0.39 0.36 0.36 0.38 0.34 0.28 0.23 0.18 0.17 0.16 0.15 0.15 0.11
0.12 0.16 0.22 0.18 0.21 0.26 0.32 0.38 0.33 0.32 0.36 0.37 0.71 0.83 0.74 0.64 0.71 0.71 0.67 0.58 0.49 0.42 0.42 0.41 0.44 0.42 0.41 0.38 0.43 0.44 0.56 0.56 0.54 0.58 0.59 0.56 0.56 0.55 0.55 0.49 0.40 0.29 0.26 0.27 0.27 0.27 0.24 0.22 0.14 0.07 0.07 0.09 0.06 0.05
0.22 0.17 0.12 0.12 0.15 0.14 0.13 0.10 0.11 0.12 0.30 0.54 0.57 0.77 0.55 0.61 0.59 0.52 0.53 0.45 0.37 0.35 0.31 0.35 0.30 0.32 0.41 0.41 0.47 0.53 0.60 0.65 0.70 0.67 0.62 0.62 0.61 0.55 0.48 0.37 0.32 0.25 0.24 0.26 0.22 0.21 0.19 0.14 0.10 0.10 0.08 0.07 0.04 0.04
0.48 0.24 0.24 0.31 0.26 0.25 0.10 0.08 0.01 0.15 0.42 0.43 0.41 0.30 0.22 0.28 0.25 0.24 0.19 0.12 0.10 0.08 0.08 0.13 0.19 0.32 0.46 0.49 0.58 0.58 0.58 0.56 0.54 0.49 0.42 0.44 0.47 0.44 0.40 0.33 0.31 0.31 0.25 0.22 0.16 0.14 0.13 0.11 0.10 0.09 0.07 0.05 0.06 0.08
0.49 0.40 0.37 0.35 0.20 0.21 0.06 0.04 0.00 0.07 0.21 0.23 0.16 0.05 0.04 0.05 0.03 0.02 0.02 0.01 0.00 0.00 0.05 0.16 0.36 0.46 0.46 0.50 0.54 0.54 0.52 0.49 0.40 0.27 0.28 0.34 0.41 0.32 0.35 0.31 0.30 0.26 0.20 0.19 0.16 0.15 0.13 0.12 0.15 0.15 0.14 0.12 0.12 0.11
0.28 0.23 0.18 0.12 0.09 0.06 0.04 0.03 0.04 0.03 0.05 0.03 0.02 0.00 0.00 0.01 0.01 0.01 0.01 0.00 0.02 0.06 0.23 0.38 0.39 0.40 0.34 0.33 0.32 0.31 0.33 0.33 0.32 0.24 0.26 0.30 0.35 0.26 0.28 0.32 0.29 0.25 0.22 0.23 0.21 0.23 0.18 0.19 0.18 0.14 0.13 0.09 0.08 0.08
0.08 0.04 0.01 0.02 0.05 0.06 0.03 0.00 0.01 0.01 0.01 0.01 0.01 0.01 0.02 0.03 0.02 0.02 0.02 0.04 0.15 0.31 0.34 0.27 0.22 0.19 0.15 0.16 0.15 0.13 0.18 0.17 0.22 0.32 0.41 0.34 0.35 0.33 0.36 0.41 0.30 0.28 0.27 0.27 0.24 0.20 0.17 0.14 0.10 0.07 0.05 0.04 0.03 0.03
0.00 0.01 0.02 0.02 0.06 0.05 0.04 0.01 0.03 0.01 0.00 0.01 0.03 0.02 0.02 0.02 0.03 0.02 0.04 0.09 0.21 0.33 0.31 0.16 0.12 0.12 0.15 0.24 0.18 0.15 0.13 0.10 0.12 0.18 0.23 0.26 0.28 0.30 0.29 0.29 0.27 0.23 0.20 0.18 0.14 0.11 0.08 0.04 0.01 0.01 0.01 0.03 0.03 0.02
0.01 0.02 0.10 0.12 0.06 0.07 0.05 0.05 0.04 0.04 0.02 0.01 0.02 0.04 0.05 0.03 0.01 0.03 0.05 0.12 0.25 0.16 0.12 0.17 0.16 0.14 0.14 0.15 0.16 0.20 0.26 0.20 0.21 0.23 0.24 0.18 0.17 0.18 0.14 0.11 0.08 0.07 0.06 0.04 0.02 0.01 0.00 0.01 0.02 0.03 0.02 0.02 0.01 0.02
0.07 0.04 0.12 0.14 0.11 0.08 0.04 0.03 0.05 0.04 0.03 0.02 0.03 0.05 0.03 0.02 0.04 0.04 0.06 0.18 0.16 0.16 0.20 0.22 0.17 0.16 0.17 0.20 0.21 0.21 0.17 0.12 0.10 0.10 0.12 0.08 0.07 0.05 0.01 0.00 0.00 0.01 0.00 0.01 0.01 0.02 0.02 0.02 0.01 0.01 0.01 0.02 0.05 0.06
0.21 0.12 0.07 0.08 0.06 0.07 0.04 0.03 0.03 0.03 0.03 0.07 0.10 0.07 0.05 0.07 0.07 0.11 0.16 0.25 0.21 0.23 0.25 0.26 0.24 0.18 0.17 0.15 0.14 0.12 0.08 0.06 0.03 0.02 0.02 0.00 0.01 0.01 0.01 0.01 0.01 0.01 0.01 0.03 0.04 0.04 0.01 0.01 0.01 0.02 0.03 0.04 0.05 0.08
0.16 0.11 0.05 0.06 0.08 0.13 0.20 0.17 0.16 0.16 0.14 0.15 0.12 0.09 0.15 0.19 0.15 0.23 0.26 0.30 0.29 0.31 0.25 0.19 0.13 0.10 0.11 0.11 0.08 0.07 0.03 0.01 0.01 0.01 0.01 0.02 0.02 0.01 0.01 0.03 0.04 0.03 0.02 0.02 0.03 0.04 0.05 0.05 0.04 0.04 0.05 0.05 0.07 0.09
0.09 0.08 0.09 0.11 0.18 0.22 0.21 0.19 0.23 0.26 0.26 0.21 0.17 0.15 0.16 0.14 0.18 0.26 0.31 0.33 0.23 0.16 0.10 0.07 0.05 0.03 0.03 0.04 0.05 0.04 0.02 0.01 0.01 0.01 0.02 0.04 0.02 0.00 0.00 0.01 0.01 0.01 0.01 0.01 0.02 0.02 0.04 0.08 0.08 0.08 0.07 0.08 0.08 0.10
0.09 0.11 0.11 0.11 0.07 0.07 0.11 0.15 0.16 0.17 0.16 0.12 0.10 0.10 0.11 0.13 0.23 0.25 0.27 0.24 0.18 0.11 0.08 0.07 0.09 0.06 0.03 0.02 0.01 0.00 0.00 0.00 0.00 0.00 0.00 0.01 0.02 0.02 0.01 0.01 0.01 0.01 0.01 0.01 0.00 0.00 0.04 0.09 0.10 0.12 0.10 0.10 0.11 0.10
0.02 0.02 0.02 0.01 0.03 0.07 0.09 0.07 0.10 0.09 0.05 0.05 0.04 0.05 0.06 0.14 0.24 0.22 0.16 0.12 0.10 0.10 0.11 0.08 0.07 0.03 0.02 0.02 0.01 0.02 0.03 0.01 0.00 0.00 0.01 0.01 0.02 0.02 0.02 0.02 0.02 0.02 0.02 0.02 0.01 0.01 0.01 0.01 0.04 0.08 0.05 0.06 0.09 0.09
0.01 0.01 0.01 0.02 0.06 0.08 0.06 0.03 0.06 0.07 0.07 0.04 0.04 0.05 0.08 0.13 0.15 0.11 0.09 0.13 0.08 0.06 0.05 0.02 0.01 0.01 0.00 0.01 0.01 0.01 0.02 0.02 0.02 0.01 0.01 0.02 0.02 0.02 0.02 0.02 0.02 0.03 0.02 0.02 0.02 0.03 0.04 0.02 0.05 0.06 0.04 0.04 0.06 0.07
0.01 0.02 0.01 0.05 0.10 0.07 0.05 0.07 0.09 0.11 0.08 0.06 0.07 0.06 0.08 0.07 0.06 0.07 0.06 0.05 0.03 0.02 0.02 0.02 0.02 0.03 0.02 0.01 0.01 0.01 0.02 0.01 0.01 0.01 0.02 0.02 0.02 0.02 0.02 0.01 0.02 0.02 0.03 0.02 0.03 0.05 0.04 0.04 0.05 0.05 0.06 0.05 0.06 0.06
0.01 0.00 0.01 0.01 0.04 0.06 0.05 0.05 0.05 0.04 0.05 0.06 0.08 0.08 0.08 0.07 0.06 0.09 0.08 0.03 0.02 0.01 0.01 0.01 0.02 0.03 0.03 0.01 0.00 0.00 0.00 0.00 0.00 0.01 0.02 0.03 0.02 0.01 0.01 0.01 0.02 0.02 0.01 0.01 0.03 0.04 0.04 0.04 0.04 0.05 0.04 0.04 0.04 0.04

GFSWCAN_prec_precacc_048.txt.gz
Total_Precipitation_Accumulation
0.53 0.53 0.44 0.44 0.38 0.41 0.56 0.63 0.50 0.50 0.50 0.39 0.39 0.37 0.31 0.31 0.49 0.63 1.09 0.63 0.93 0.73 0.25 0.20 0.20 0.19 0.06 0.03 0.07 0.03 0.13 0.13 0.28 0.20 0.05 0.01 0.01 0.00 0.01 0.00 0.02 0.06 0.05 0.03 0.03 0.04 0.00 0.00 0.00 0.00 0.00 0.00 0.00 0.00
0.70 0.49 0.44 0.44 0.36 0.45 0.56 0.57 0.45 0.47 0.43 0.36 0.34 0.33 0.28 0.31 0.50 0.56 0.89 0.67 0.69 1.01 0.60 0.22 0.19 0.16 0.08 0.01 0.01 0.02 0.04 0.04 0.07 0.11 0.03 0.05 0.02 0.02 0.00 0.00 0.00 0.01 0.05 0.06 0.01 0.00 0.00 0.00 0.00 0.00 0.00 0.00 0.00 0.00
0.88 0.52 0.42 0.40 0.41 0.50 0.53 0.46 0.35 0.36 0.36 0.35 0.31 0.31 0.29 0.36 0.50 0.51 0.68 0.83 1.06 1.40 0.65 0.27 0.15 0.10 0.14 0.03 0.03 0.12 0.04 0.01 0.02 0.06 0.06 0.05 0.03 0.01 0.01 0.00 0.00 0.00 0.01 0.01 0.01 0.01 0.00 0.00 0.00 0.00 0.00 0.00 0.00 0.00
0.74 0.58 0.43 0.44 0.45 0.50 0.47 0.36 0.33 0.36 0.35 0.36 0.31 0.35 0.34 0.50 0.42 0.49 0.60 1.13 1.45 1.29 1.01 0.41 0.29 0.19 0.14 0.13 0.05 0.08 0.07 0.02 0.04 0.06 0.11 0.11 0.05 0.02 0.01 0.01 0.00 0.00 0.00 0.00 0.00 0.00 0.00 0.01 0.01 0.00 0.00 0.00 0.00 0.00
0.62 0.54 0.46 0.37 0.35 0.35 0.31 0.33 0.33 0.35 0.40 0.37 0.36 0.41 0.56 0.50 0.38 0.57 0.66 1.25 1.51 1.54 1.23 0.65 0.24 0.22 0.18 0.14 0.07 0.04 0.07 0.10 0.12 0.18 0.14 0.06 0.02 0.03 0.03 0.02 0.00 0.00 0.00 0.01 0.00 0.00 0.00 0.00 0.00 0.00 0.00 0.00 0.00 0.00
0.56 0.51 0.41 0.31 0.28 0.24 0.23 0.27 0.31 0.35 0.35 0.35 0.44 0.59 0.48 0.34 0.43 0.99 1.43 1.14 0.97 1.13 1.31 1.05 0.31 0.16 0.21 0.23 0.27 0.10 0.08 0.14 0.18 0.15 0.13 0.04 0.01 0.02 0.01 0.00 0.00 0.01 0.02 0.02 0.01 0.01 0.00 0.00 0.00 0.00 0.00 0.00 0.00 0.00
0.60 0.52 0.40 0.27 0.20 0.16 0.20 0.26 0.30 0.32 0.41 0.46 0.50 0.44 0.38 0.41 0.48 1.08 1.07 0.88 0.48 0.81 1.09 0.95 0.76 0.28 0.25 0.40 0.75 0.51 0.35 0.29 0.40 0.30 0.15 0.06 0.02 0.02 0.01 0.00 0.00 0.00 0.00 0.01 0.00 0.00 0.00 0.00 0.00 0.00 0.00 0.00 0.00 0.00
0.49 0.40 0.33 0.26 0.21 0.22 0.25 0.27 0.27 0.31 0.37 0.36 0.33 0.40 0.42 0.56 0.69 1.02 0.69 0.63 0.46 0.50 0.71 0.85 0.97 0.73 0.37 0.50 0.76 0.78 0.53 0.61 0.50 0.30 0.14 0.07 0.08 0.07 0.03 0.00 0.00 0.00 0.00 0.00 0.00 0.00 0.00 0.00 0.00 0.00 0.00 0.00 0.00 0.00
0.33 0.28 0.25 0.24 0.28 0.24 0.22 0.20 0.24 0.29 0.29 0.35 0.47 0.52 0.75 1.07 1.19 1.00 0.69 0.70 0.63 0.58 0.63 0.38 0.78 0.88 0.63 0.51 0.67 0.69 0.73 0.64 0.35 0.24 0.12 0.12 0.09 0.09 0.03 0.00 0.00 0.00 0.00 0.00 0.00 0.00 0.00 0.00 0.00 0.00 0.00 0.01 0.03 0.10
0.24 0.22 0.22 0.19 0.22 0.20 0.17 0.17 0.19 0.17 0.24 0.40 0.57 0.81 1.10 0.99 1.16 0.96 1.29 1.18 0.74 0.53 0.39 0.26 0.38 0.88 0.78 0.74 0.67 0.72 0.75 0.65 0.40 0.32 0.26 0.20 0.10 0.04 0.01 0.01 0.00 0.00 0.00 0.00 0.00 0.00 0.00 0.01 0.03 0.07 0.10 0.11 0.11 0.11
0.29 0.25 0.23 0.16 0.15 0.18 0.15 0.15 0.16 0.24 0.45 0.62 0.86 1.00 0.83 1.01 1.15 1.21 1.20 1.01 0.67 0.37 0.13 0.05 0.22 0.75 0.81 0.77 0.85 0.58 0.72 0.86 0.45 0.29 0.34 0.27 0.15 0.05 0.03 0.03 0.01 0.00 0.01 0.01 0.01 0.01 0.01 0.04 0.11 0.14 0.12 0.08 0.04 0.01
0.23 0.16 0.10 0.08 0.10 0.16 0.13 0.11 0.19 0.35 0.51 0.73 0.88 0.77 1.02 1.15 0.99 0.90 0.79 0.66 0.34 0.14 0.11 0.08 0.10 0.28 0.77 0.86 0.95 0.60 0.52 0.44 0.47 0.24 0.41 0.37 0.18 0.12 0.07 0.05 0.05 0.06 0.05 0.04 0.05 0.09 0.15 0.16 0.16 0.12 0.06 0.03 0.04 0.07
0.23 0.18 0.14 0.10 0.06 0.09 0.16 0.30 0.49 0.61 0.93 1.02 0.84 0.84 0.94 0.93 0.94 0.84 0.70 0.51 0.35 0.06 0.08 0.15 0.22 0.29 0.51 0.90 0.99 0.75 0.76 0.55 0.49 0.49 0.35 0.29 0.14 0.16 0.26 0.31 0.31 0.25 0.23 0.24 0.25 0.21 0.16 0.11 0.10 0.11 0.15 0.23 0.28 0.36
0.14 0.15 0.17 0.21 0.31 0.47 0.51 0.53 0.91 1.16 0.98 0.73 0.62 0.78 0.80 0.81 0.61 0.56 0.53 0.49 0.32 0.16 0.12 0.17 0.37 0.47 0.35 0.61 0.94 0.90 0.93 0.68 0.73 0.51 0.31 0.31 0.39 0.55 0.49 0.38 0.33 0.36 0.36 0.38 0.41 0.41 0.40 0.42 0.51 0.59 0.62 0.64 0.58 0.60
0.12 0.13 0.25 0.53 0.59 0.44 0.39 0.58 0.83 0.72 0.49 0.50 0.38 0.47 0.57 0.62 0.50 0.56 0.51 0.36 0.32 0.32 0.33 0.44 0.69 0.49 0.39 0.67 0.75 0.69 0.64 0.52 0.43 0.45 0.52 0.66 0.68 0.66 0.49 0.41 0.38 0.39 0.41 0.42 0.45 0.46 0.52 0.54 0.47 0.50 0.51 0.47 0.38 0.36
0.09 0.16 0.31 0.36 0.26 0.29 0.37 0.59 0.67 0.30 0.32 0.36 0.47 0.60 0.56 0.59 0.62 0.62 0.53 0.44 0.47 0.55 0.60 0.67 0.66 0.61 0.73 0.58 0.42 0.43 0.40 0.49 0.65 0.55 0.58 0.61 0.53 0.55 0.52 0.47 0.46 0.47 0.45 0.45 0.47 0.44 0.38 0.32 0.27 0.27 0.26 0.25 0.25 0.20
0.12 0.16 0.22 0.18 0.21 0.26 0.32 0.38 0.33 0.32 0.37 0.40 0.77 0.89 0.79 0.68 0.74 0.74 0.70 0.60 0.51 0.46 0.47 0.45 0.48 0.46 0.43 0.39 0.45 0.46 0.60 0.61 0.59 0.62 0.65 0.63 0.64 0.63 0.63 0.56 0.47 0.36 0.33 0.35 0.35 0.34 0.32 0.31 0.21 0.13 0.14 0.17 0.12 0.11
0.22 0.17 0.12 0.12 0.15 0.14 0.13 0.10 0.11 0.13 0.32 0.59 0.64 0.84 0.61 0.68 0.66 0.59 0.59 0.50 0.41 0.40 0.38 0.43 0.36 0.37 0.46 0.46 0.55 0.62 0.70 0.73 0.78 0.75 0.69 0.70 0.68 0.62 0.55 0.45 0.40 0.32 0.31 0.32 0.28 0.27 0.25 0.20 0.14 0.16 0.14 0.12 0.08 0.07
0.48 0.24 0.24 0.31 0.26 0.25 0.11 0.09 0.01 0.16 0.47 0.50 0.50 0.39 0.31 0.39 0.36 0.34 0.26 0.18 0.14 0.14 0.13 0.16 0.24 0.38 0.52 0.55 0.64 0.64 0.65 0.62 0.61 0.56 0.49 0.51 0.53 0.51 0.47 0.38 0.36 0.36 0.29 0.26 0.19 0.16 0.16 0.14 0.13 0.12 0.10 0.07 0.07 0.10
0.50 0.41 0.37 0.35 0.20 0.21 0.06 0.05 0.00 0.08 0.22 0.24 0.18 0.07 0.06 0.08 0.05 0.04 0.03 0.02 0.01 0.01 0.06 0.17 0.39 0.50 0.49 0.53 0.56 0.56 0.56 0.52 0.42 0.29 0.31 0.38 0.44 0.35 0.38 0.33 0.33 0.28 0.21 0.19 0.17 0.15 0.13 0.12 0.15 0.15 0.14 0.13 0.12 0.12
0.32 0.25 0.18 0.12 0.09 0.06 0.04 0.04 0.04 0.04 0.05 0.04 0.03 0.00 0.01 0.01 0.01 0.01 0.01 0.00 0.02 0.07 0.25 0.41 0.42 0.42 0.36 0.35 0.33 0.32 0.34 0.33 0.33 0.25 0.28 0.32 0.37 0.26 0.28 0.32 0.29 0.25 0.22 0.24 0.21 0.23 0.18 0.19 0.18 0.14 0.13 0.09 0.08 0.08
0.09 0.04 0.01 0.02 0.06 0.06 0.03 0.00 0.02 0.01 0.01 0.01 0.01 0.01 0.02 0.03 0.02 0.02 0.02 0.04 0.17 0.34 0.37 0.29 0.24 0.21 0.16 0.16 0.16 0.14 0.19 0.17 0.23 0.32 0.41 0.34 0.35 0.33 0.36 0.41 0.30 0.28 0.27 0.27 0.24 0.20 0.17 0.14 0.10 0.07 0.05 0.05 0.04 0.03
0.00 0.01 0.02 0.02 0.06 0.05 0.04 0.01 0.03 0.01 0.01 0.01 0.03 0.02 0.02 0.02 0.03 0.02 0.04 0.10 0.25 0.36 0.32 0.17 0.13 0.13 0.15 0.24 0.18 0.15 0.13 0.10 0.12 0.18 0.23 0.26 0.28 0.30 0.29 0.29 0.27 0.23 0.20 0.18 0.14 0.11 0.08 0.04 0.01 0.01 0.01 0.03 0.03 0.02
0.01 0.02 0.10 0.12 0.06 0.07 0.05 0.05 0.04 0.04 0.02 0.01 0.02 0.04 0.05 0.03 0.01 0.03 0.05 0.13 0.27 0.17 0.13 0.19 0.17 0.14 0.14 0.15 0.16 0.20 0.26 0.20 0.21 0.23 0.24 0.18 0.17 0.18 0.14 0.11 0.08 0.07 0.06 0.04 0.02 0.01 0.01 0.01 0.02 0.03 0.03 0.02 0.01 0.02
0.07 0.04 0.12 0.14 0.11 0.08 0.04 0.03 0.05 0.04 0.03 0.02 0.03 0.05 0.04 0.02 0.04 0.05 0.07 0.19 0.17 0.18 0.21 0.23 0.17 0.16 0.17 0.20 0.21 0.21 0.17 0.12 0.10 0.10 0.12 0.08 0.07 0.05 0.01 0.00 0.00 0.01 0.00 0.01 0.02 0.02 0.02 0.02 0.02 0.01 0.01 0.03 0.05 0.06
0.21 0.12 0.08 0.08 0.06 0.07 0.04 0.03 0.03 0.03 0.03 0.08 0.10 0.07 0.05 0.07 0.07 0.12 0.17 0.27 0.23 0.24 0.26 0.28 0.25 0.19 0.17 0.15 0.14 0.12 0.08 0.06 0.03 0.02 0.02 0.00 0.01 0.01 0.01 0.01 0.01 0.01 0.01 0.03 0.05 0.04 0.02 0.01 0.01 0.02 0.03 0.04 0.05 0.08
0.16 0.11 0.06 0.06 0.09 0.13 0.20 0.17 0.16 0.16 0.14 0.15 0.12 0.09 0.15 0.19 0.15 0.23 0.27 0.31 0.30 0.31 0.25 0.20 0.13 0.10 0.12 0.11 0.08 0.07 0.03 0.01 0.01 0.01 0.01 0.02 0.02 0.01 0.01 0.03 0.04 0.04 0.02 0.02 0.03 0.04 0.05 0.05 0.04 0.04 0.05 0.05 0.07 0.09
0.09 0.08 0.09 0.11 0.18 0.22 0.21 0.19 0.23 0.26 0.26 0.21 0.17 0.15 0.16 0.14 0.19 0.28 0.32 0.34 0.23 0.16 0.10 0.07 0.05 0.03 0.04 0.04 0.06 0.04 0.02 0.01 0.01 0.01 0.02 0.04 0.02 0.00 0.01 0.01 0.02 0.01 0.01 0.01 0.02 0.03 0.04 0.08 0.08 0.08 0.07 0.08 0.09 0.10
0.09 0.11 0.11 0.11 0.07 0.07 0.11 0.15 0.17 0.18 0.16 0.13 0.10 0.10 0.11 0.14 0.25 0.26 0.28 0.25 0.18 0.12 0.08 0.07 0.10 0.06 0.04 0.02 0.01 0.01 0.00 0.00 0.00 0.00 0.00 0.01 0.02 0.02 0.01 0.01 0.02 0.01 0.02 0.01 0.00 0.01 0.04 0.09 0.10 0.12 0.10 0.10 0.11 0.11
0.02 0.02 0.02 0.01 0.03 0.07 0.10 0.07 0.11 0.10 0.05 0.05 0.04 0.05 0.06 0.15 0.26 0.23 0.17 0.13 0.11 0.11 0.11 0.09 0.07 0.03 0.03 0.02 0.02 0.02 0.03 0.01 0.00 0.00 0.01 0.01 0.02 0.02 0.02 0.03 0.02 0.02 0.02 0.02 0.01 0.01 0.01 0.02 0.04 0.08 0.05 0.06 0.09 0.09
0.01 0.01 0.01 0.02 0.06 0.08 0.07 0.04 0.06 0.07 0.07 0.05 0.04 0.05 0.08 0.14 0.16 0.12 0.10 0.14 0.08 0.07 0.05 0.02 0.01 0.01 0.00 0.01 0.01 0.01 0.02 0.02 0.02 0.01 0.01 0.02 0.02 0.02 0.02 0.02 0.02 0.03 0.03 0.02 0.02 0.03 0.04 0.02 0.05 0.06 0.04 0.04 0.06 0.07
0.01 0.02 0.01 0.05 0.11 0.07 0.06 0.09 0.09 0.12 0.08 0.06 0.08 0.06 0.09 0.07 0.07 0.08 0.07 0.06 0.03 0.02 0.02 0.03 0.03 0.03 0.02 0.01 0.01 0.01 0.02 0.01 0.01 0.01 0.02 0.03 0.02 0.02 0.02 0.02 0.02 0.03 0.03 0.03 0.03 0.05 0.04 0.04 0.05 0.05 0.06 0.05 0.06 0.06
0.01 0.00 0.01 0.01 0.04 0.07 0.05 0.05 0.05 0.05 0.05 0.06 0.09 0.08 0.08 0.07 0.07 0.10 0.08 0.04 0.03 0.02 0.01 0.01 0.02 0.03 0.03 0.01 0.00 0.00 0.00 0.00 0.00 0.01 0.02 0.03 0.02 0.01 0.01 0.01 0.02 0.02 0.01 0.02 0.03 0.05 0.04 0.04 0.05 0.05 0.04 0.04 0.04 0.04

GFSWCAN_prec_precacc_051.txt.gz
Total_Precipitation_Accumulation
0.54 0.56 0.46 0.45 0.38 0.42 0.57 0.64 0.51 0.51 0.51 0.42 0.43 0.40 0.33 0.33 0.52 0.69 1.26 0.74 1.33 1.15 0.30 0.20 0.22 0.19 0.06 0.05 0.08 0.03 0.14 0.14 0.30 0.30 0.08 0.03 0.01 0.01 0.01 0.05 0.14 0.11 0.05 0.04 0.05 0.06 0.00 0.00 0.00 0.00 0.00 0.00 0.00 0.00
0.75 0.51 0.45 0.45 0.36 0.46 0.57 0.58 0.46 0.48 0.44 0.37 0.36 0.35 0.31 0.34 0.53 0.62 0.95 0.73 0.89 1.34 0.76 0.25 0.20 0.16 0.09 0.01 0.02 0.03 0.05 0.04 0.08 0.24 0.11 0.09 0.03 0.02 0.00 0.00 0.01 0.05 0.05 0.06 0.01 0.00 0.00 0.00 0.00 0.00 0.00 0.00 0.00 0.00
0.89 0.53 0.44 0.41 0.42 0.53 0.56 0.47 0.36 0.38 0.41 0.38 0.33 0.33 0.34 0.46 0.57 0.59 0.71 0.89 1.27 1.78 0.90 0.38 0.16 0.11 0.15 0.04 0.04 0.15 0.04 0.01 0.03 0.07 0.10 0.12 0.07 0.02 0.01 0.00 0.00 0.00 0.01 0.01 0.01 0.01 0.00 0.02 0.03 0.01 0.00 0.00 0.00 0.00
0.76 0.61 0.44 0.44 0.46 0.54 0.49 0.38 0.35 0.38 0.39 0.42 0.34 0.38 0.43 0.63 0.52 0.54 0.61 1.28 1.73 1.56 1.13 0.48 0.34 0.20 0.14 0.16 0.09 0.10 0.08 0.03 0.06 0.11 0.16 0.19 0.12 0.02 0.01 0.01 0.00 0.00 0.00 0.00 0.00 0.00 0.00 0.02 0.02 0.02 0.01 0.00 0.00 0.00
0.63 0.55 0.46 0.37 0.35 0.37 0.35 0.36 0.37 0.39 0.46 0.40 0.39 0.48 0.67 0.64 0.50 0.62 0.68 1.36 1.72 1.68 1.25 0.66 0.27 0.24 0.19 0.15 0.12 0.06 0.08 0.13 0.16 0.26 0.29 0.13 0.05 0.04 0.03 0.03 0.00 0.00 0.00 0.01 0.00 0.00 0.00 0.00 0.00 0.03 0.01 0.00 0.00 0.00
0.57 0.52 0.41 0.31 0.29 0.27 0.31 0.38 0.41 0.43 0.39 0.37 0.52 0.68 0.58 0.46 0.54 1.05 1.59 1.38 1.18 1.21 1.32 1.06 0.31 0.17 0.23 0.23 0.27 0.10 0.08 0.16 0.23 0.24 0.22 0.19 0.06 0.04 0.04 0.01 0.00 0.01 0.02 0.02 0.01 0.01 0.01 0.00 0.00 0.00 0.00 0.00 0.00 0.00
0.61 0.53 0.40 0.27 0.21 0.21 0.27 0.32 0.34 0.35 0.44 0.54 0.57 0.49 0.44 0.49 0.54 1.11 1.15 0.99 0.55 0.83 1.09 0.96 0.76 0.28 0.27 0.41 0.75 0.51 0.35 0.30 0.45 0.37 0.24 0.11 0.08 0.07 0.02 0.01 0.00 0.00 0.00 0.01 0.00 0.00 0.00 0.00 0.00 0.00 0.00 0.00 0.00 0.00
0.49 0.40 0.33 0.26 0.21 0.23 0.26 0.29 0.30 0.35 0.43 0.41 0.38 0.46 0.50 0.65 0.73 1.02 0.69 0.63 0.46 0.50 0.71 0.86 0.98 0.75 0.39 0.51 0.76 0.79 0.53 0.61 0.62 0.52 0.30 0.12 0.12 0.15 0.08 0.01 0.00 0.00 0.00 0.00 0.00 0.00 0.00 0.00 0.00 0.00 0.00 0.00 0.00 0.00
0.34 0.29 0.25 0.25 0.28 0.24 0.23 0.22 0.27 0.33 0.33 0.42 0.55 0.60 0.80 1.11 1.20 1.00 0.69 0.71 0.64 0.58 0.64 0.38 0.78 0.89 0.64 0.56 0.71 0.76 0.78 0.66 0.39 0.38 0.41 0.34 0.16 0.19 0.12 0.02 0.00 0.00 0.00 0.00 0.00 0.00 0.00 0.00 0.00 0.00 0.00 0.01 0.03 0.10
0.27 0.26 0.26 0.24 0.27 0.24 0.21 0.20 0.22 0.20 0.27 0.42 0.60 0.87 1.23 1.04 1.16 0.96 1.30 1.19 0.75 0.54 0.41 0.27 0.38 0.88 0.79 0.74 0.70 0.80 0.81 0.68 0.42 0.35 0.36 0.47 0.36 0.09 0.02 0.06 0.04 0.00 0.00 0.00 0.00 0.00 0.00 0.01 0.03 0.07 0.10 0.11 0.11 0.11
0.31 0.28 0.28 0.23 0.23 0.27 0.24 0.24 0.23 0.29 0.48 0.65 0.88 1.04 0.88 1.02 1.16 1.21 1.20 1.01 0.67 0.37 0.13 0.05 0.23 0.75 0.81 0.77 0.86 0.62 0.82 0.87 0.46 0.32 0.38 0.37 0.25 0.09 0.04 0.04 0.03 0.01 0.01 0.01 0.01 0.01 0.01 0.04 0.11 0.14 0.12 0.08 0.04 0.01
0.26 0.18 0.13 0.12 0.16 0.25 0.23 0.20 0.25 0.36 0.52 0.74 0.88 0.78 1.05 1.22 1.01 0.91 0.80 0.67 0.34 0.15 0.13 0.10 0.11 0.28 0.77 0.86 0.95 0.62 0.56 0.52 0.70 0.31 0.48 0.45 0.23 0.14 0.08 0.07 0.06 0.07 0.06 0.06 0.06 0.09 0.15 0.16 0.16 0.12 0.06 0.03 0.04 0.07
0.24 0.18 0.14 0.11 0.06 0.10 0.17 0.30 0.49 0.61 0.94 1.04 0.86 0.95 1.04 0.95 0.95 0.85 0.73 0.56 0.39 0.09 0.11 0.17 0.23 0.30 0.52 0.92 1.04 0.84 0.88 0.65 0.72 0.72 0.42 0.39 0.20 0.18 0.28 0.33 0.32 0.26 0.24 0.25 0.26 0.22 0.16 0.12 0.10 0.12 0.16 0.24 0.29 0.37
0.14 0.15 0.17 0.21 0.31 0.47 0.51 0.53 0.91 1.16 0.99 0.74 0.62 0.78 0.80 0.82 0.63 0.58 0.60 0.61 0.37 0.19 0.14 0.20 0.41 0.55 0.48 0.83 1.20 1.19 1.21 0.90 0.91 0.66 0.37 0.35 0.43 0.59 0.53 0.41 0.35 0.38 0.38 0.40 0.43 0.43 0.43 0.45 0.55 0.62 0.66 0.68 0.61 0.63
0.12 0.13 0.25 0.53 0.59 0.44 0.39 0.58 0.83 0.72 0.49 0.50 0.38 0.48 0.58 0.65 0.51 0.57 0.53 0.40 0.37 0.37 0.41 0.55 0.82 0.67 0.58 0.89 0.90 0.85 0.80 0.63 0.52 0.54 0.61 0.74 0.74 0.71 0.55 0.47 0.44 0.45 0.46 0.47 0.50 0.51 0.57 0.58 0.50 0.55 0.57 0.53 0.43 0.42
0.09 0.16 0.31 0.36 0.26 0.29 0.37 0.59 0.67 0.30 0.32 0.36 0.48 0.62 0.56 0.60 0.62 0.62 0.53 0.45 0.48 0.60 0.64 0.69 0.74 0.70 0.80 0.63 0.45 0.46 0.43 0.52 0.70 0.60 0.64 0.68 0.61 0.63 0.60 0.55 0.54 0.55 0.52 0.52 0.55 0.50 0.44 0.38 0.32 0.33 0.31 0.31 0.31 0.24
0.12 0.16 0.22 0.18 0.21 0.26 0.32 0.38 0.33 0.32 0.37 0.42 0.79 0.90 0.80 0.69 0.76 0.77 0.71 0.62 0.53 0.48 0.48 0.46 0.48 0.48 0.45 0.39 0.46 0.47 0.62 0.64 0.62 0.67 0.70 0.68 0.70 0.71 0.70 0.62 0.54 0.42 0.38 0.41 0.41 0.39 0.38 0.38 0.25 0.15 0.18 0.23 0.16 0.15
0.22 0.17 0.12 0.13 0.16 0.14 0.13 0.10 0.11 0.13 0.33 0.62 0.67 0.87 0.63 0.70 0.68 0.61 0.61 0.52 0.42 0.40 0.38 0.44 0.37 0.39 0.49 0.50 0.60 0.66 0.73 0.77 0.81 0.79 0.75 0.76 0.74 0.68 0.60 0.49 0.46 0.37 0.35 0.36 0.31 0.30 0.28 0.23 0.17 0.21 0.18 0.17 0.11 0.10
0.48 0.24 0.24 0.32 0.27 0.25 0.11 0.09 0.01 0.17 0.50 0.54 0.54 0.44 0.35 0.44 0.41 0.38 0.30 0.20 0.15 0.14 0.15 0.20 0.28 0.46 0.60 0.66 0.74 0.73 0.73 0.68 0.68 0.63 0.56 0.58 0.60 0.57 0.52 0.43 0.40 0.39 0.32 0.30 0.22 0.19 0.19 0.16 0.16 0.14 0.12 0.08 0.09 0.13
0.50 0.41 0.37 0.35 0.20 0.21 0.06 0.05 0.00 0.08 0.25 0.29 0.24 0.10 0.09 0.13 0.09 0.07 0.06 0.03 0.03 0.03 0.09 0.22 0.46 0.57 0.55 0.60 0.62 0.63 0.62 0.57 0.46 0.32 0.35 0.42 0.47 0.37 0.41 0.36 0.35 0.30 0.22 0.20 0.17 0.16 0.13 0.12 0.15 0.15 0.14 0.13 0.12 0.12
0.32 0.25 0.18 0.12 0.09 0.06 0.05 0.04 0.04 0.04 0.07 0.06 0.05 0.01 0.01 0.01 0.01 0.01 0.01 0.00 0.02 0.07 0.28 0.45 0.45 0.46 0.39 0.37 0.35 0.33 0.36 0.35 0.35 0.27 0.30 0.35 0.39 0.27 0.29 0.32 0.29 0.25 0.22 0.24 0.21 0.23 0.18 0.19 0.18 0.14 0.13 0.09 0.08 0.08
0.09 0.04 0.01 0.02 0.06 0.06 0.03 0.00 0.02 0.02 0.01 0.02 0.01 0.02 0.02 0.03 0.02 0.02 0.02 0.04 0.20 0.38 0.40 0.31 0.26 0.23 0.17 0.18 0.18 0.14 0.20 0.18 0.23 0.33 0.42 0.34 0.35 0.34 0.36 0.41 0.30 0.28 0.27 0.27 0.24 0.20 0.17 0.14 0.10 0.07 0.05 0.05 0.04 0.03
0.00 0.01 0.02 0.02 0.06 0.05 0.04 0.01 0.03 0.01 0.01 0.01 0.03 0.02 0.02 0.02 0.03 0.02 0.05 0.12 0.30 0.39 0.34 0.18 0.13 0.13 0.16 0.24 0.18 0.15 0.13 0.10 0.12 0.18 0.23 0.26 0.28 0.30 0.29 0.29 0.27 0.23 0.20 0.18 0.14 0.11 0.08 0.04 0.01 0.01 0.01 0.03 0.03 0.02
0.01 0.02 0.10 0.12 0.06 0.07 0.05 0.05 0.04 0.04 0.02 0.01 0.02 0.04 0.05 0.03 0.01 0.03 0.06 0.15 0.29 0.20 0.16 0.21 0.17 0.14 0.14 0.15 0.16 0.20 0.26 0.20 0.21 0.23 0.24 0.18 0.17 0.18 0.14 0.11 0.08 0.07 0.06 0.04 0.02 0.01 0.01 0.01 0.02 0.03 0.03 0.02 0.01 0.02
0.07 0.04 0.12 0.14 0.11 0.08 0.04 0.03 0.05 0.04 0.03 0.02 0.03 0.06 0.04 0.02 0.04 0.05 0.08 0.21 0.19 0.19 0.22 0.23 0.17 0.17 0.17 0.20 0.21 0.21 0.17 0.12 0.10 0.10 0.12 0.08 0.07 0.05 0.02 0.00 0.00 0.01 0.00 0.01 0.02 0.02 0.02 0.02 0.02 0.01 0.01 0.03 0.05 0.06
0.21 0.12 0.08 0.08 0.06 0.07 0.04 0.03 0.03 0.03 0.03 0.08 0.11 0.07 0.05 0.07 0.07 0.12 0.19 0.29 0.23 0.25 0.28 0.30 0.26 0.19 0.17 0.15 0.14 0.12 0.08 0.06 0.03 0.02 0.02 0.00 0.01 0.01 0.01 0.01 0.01 0.01 0.01 0.03 0.05 0.04 0.02 0.01 0.01 0.02 0.03 0.04 0.05 0.08
0.16 0.12 0.06 0.06 0.09 0.13 0.20 0.17 0.16 0.16 0.14 0.15 0.12 0.09 0.15 0.19 0.16 0.25 0.30 0.32 0.30 0.32 0.26 0.20 0.13 0.10 0.12 0.11 0.08 0.07 0.03 0.01 0.01 0.01 0.01 0.02 0.02 0.01 0.01 0.03 0.04 0.04 0.02 0.02 0.03 0.04 0.05 0.05 0.04 0.04 0.05 0.05 0.07 0.09
0.10 0.08 0.09 0.11 0.18 0.22 0.21 0.19 0.23 0.26 0.26 0.21 0.17 0.15 0.16 0.14 0.21 0.30 0.33 0.35 0.24 0.16 0.10 0.07 0.05 0.03 0.04 0.05 0.06 0.04 0.03 0.01 0.01 0.01 0.02 0.05 0.02 0.00 0.01 0.01 0.02 0.01 0.01 0.01 0.02 0.03 0.04 0.08 0.08 0.08 0.07 0.08 0.09 0.10
0.09 0.11 0.11 0.11 0.07 0.07 0.12 0.15 0.17 0.18 0.16 0.14 0.10 0.11 0.12 0.15 0.26 0.27 0.29 0.25 0.18 0.12 0.09 0.07 0.10 0.06 0.04 0.02 0.01 0.01 0.00 0.00 0.00 0.00 0.00 0.01 0.03 0.02 0.01 0.01 0.02 0.01 0.02 0.01 0.00 0.01 0.04 0.09 0.10 0.12 0.10 0.10 0.11 0.11
0.02 0.02 0.02 0.01 0.03 0.07 0.11 0.08 0.12 0.11 0.05 0.05 0.04 0.05 0.07 0.17 0.29 0.25 0.18 0.15 0.12 0.12 0.11 0.09 0.08 0.04 0.03 0.03 0.02 0.02 0.03 0.01 0.00 0.00 0.01 0.02 0.03 0.02 0.02 0.03 0.02 0.02 0.02 0.02 0.01 0.01 0.01 0.02 0.04 0.08 0.05 0.06 0.09 0.09
0.01 0.01 0.01 0.02 0.06 0.09 0.07 0.04 0.07 0.07 0.07 0.05 0.04 0.05 0.09 0.14 0.16 0.13 0.10 0.14 0.08 0.07 0.05 0.02 0.01 0.01 0.01 0.01 0.02 0.01 0.02 0.02 0.02 0.01 0.01 0.02 0.02 0.02 0.02 0.02 0.02 0.03 0.03 0.02 0.02 0.03 0.04 0.02 0.05 0.06 0.04 0.04 0.06 0.07
0.01 0.02 0.01 0.05 0.11 0.08 0.08 0.12 0.10 0.12 0.09 0.06 0.08 0.06 0.09 0.08 0.07 0.08 0.07 0.06 0.04 0.03 0.03 0.03 0.03 0.04 0.02 0.01 0.01 0.01 0.02 0.01 0.01 0.01 0.02 0.03 0.02 0.02 0.02 0.02 0.02 0.03 0.03 0.03 0.03 0.05 0.04 0.04 0.05 0.05 0.06 0.05 0.06 0.06
0.01 0.00 0.01 0.01 0.05 0.07 0.06 0.06 0.05 0.05 0.06 0.06 0.09 0.09 0.09 0.08 0.07 0.11 0.08 0.04 0.05 0.03 0.01 0.02 0.02 0.03 0.03 0.01 0.00 0.00 0.00 0.00 0.00 0.01 0.02 0.03 0.02 0.01 0.01 0.01 0.02 0.02 0.01 0.02 0.03 0.05 0.04 0.04 0.05 0.05 0.04 0.04 0.04 0.04